Wetterdaten: Samstag, 08.02.2014
Datum Zeit Temp. Aussen +5cm Feuchte Auss Luftdruck Regen Sonnenschein Regendauer UV Solar Windben
08.02.2014 00:00 4,6 C 2,8 C 87 % 1000,9 hPa 0,0 l/m 0 min 0 min 0,0 UV-I 0 W/m 20,6 km/h (4 Bft)
08.02.2014 00:02 4,7 C 2,8 C 87 % 1001,0 hPa 0,0 l/m 0 min 0 min 0,0 UV-I 0 W/m 15,4 km/h (3 Bft)
08.02.2014 00:04 4,7 C 2,8 C 87 % 1000,8 hPa 0,0 l/m 0 min 0 min 0,0 UV-I 0 W/m 0,0 km/h (0 Bft)
08.02.2014 00:06 4,7 C 2,8 C 87 % 1000,7 hPa 0,0 l/m 0 min 0 min 0,0 UV-I 0 W/m 0,0 km/h (0 Bft)
08.02.2014 00:08 4,7 C 2,8 C 86 % 1000,6 hPa 0,0 l/m 0 min 0 min 0,0 UV-I 0 W/m 12,9 km/h (3 Bft)
08.02.2014 00:10 4,7 C 2,8 C 86 % 1000,7 hPa 0,0 l/m 0 min 0 min 0,0 UV-I 0 W/m 15,4 km/h (3 Bft)
08.02.2014 00:12 4,7 C 2,8 C 86 % 1000,6 hPa 0,0 l/m 0 min 0 min 0,0 UV-I 0 W/m 10,3 km/h (2 Bft)
08.02.2014 00:14 4,7 C 2,8 C 86 % 1000,6 hPa 0,0 l/m 0 min 0 min 0,0 UV-I 0 W/m 15,4 km/h (3 Bft)
08.02.2014 00:16 4,7 C 2,8 C 86 % 1000,6 hPa 0,0 l/m 0 min 0 min 0,0 UV-I 0 W/m 7,7 km/h (2 Bft)
08.02.2014 00:18 4,7 C 2,8 C 86 % 1000,5 hPa 0,0 l/m 0 min 0 min 0,0 UV-I 0 W/m 12,9 km/h (3 Bft)
08.02.2014 00:20 4,7 C 2,8 C 86 % 1000,4 hPa 0,0 l/m 0 min 0 min 0,0 UV-I 0 W/m 10,3 km/h (2 Bft)
08.02.2014 00:22 4,7 C 2,8 C 86 % 1000,4 hPa 0,0 l/m 0 min 0 min 0,0 UV-I 0 W/m 15,4 km/h (3 Bft)
08.02.2014 00:24 4,7 C 2,8 C 86 % 1000,4 hPa 0,0 l/m 0 min 0 min 0,0 UV-I 0 W/m 10,3 km/h (2 Bft)
08.02.2014 00:26 4,6 C 2,8 C 86 % 1000,3 hPa 0,0 l/m 0 min 0 min 0,0 UV-I 0 W/m 12,9 km/h (3 Bft)
08.02.2014 00:28 4,6 C 2,2 C 86 % 1000,3 hPa 0,0 l/m 0 min 0 min 0,0 UV-I 0 W/m 7,7 km/h (2 Bft)
08.02.2014 00:30 4,6 C 2,2 C 86 % 1000,3 hPa 0,0 l/m 0 min 0 min 0,0 UV-I 0 W/m 5,1 km/h (1 Bft)
08.02.2014 00:32 4,5 C 2,2 C 86 % 1000,3 hPa 0,0 l/m 0 min 0 min 0,0 UV-I 0 W/m 5,1 km/h (1 Bft)
08.02.2014 00:34 4,4 C 2,2 C 86 % 1000,3 hPa 0,0 l/m 0 min 0 min 0,0 UV-I 0 W/m 10,3 km/h (2 Bft)
08.02.2014 00:36 4,4 C 2,2 C 87 % 1000,2 hPa 0,0 l/m 0 min 0 min 0,0 UV-I 0 W/m 7,7 km/h (2 Bft)
08.02.2014 00:38 4,4 C 2,2 C 87 % 1000,2 hPa 0,0 l/m 0 min 0 min 0,0 UV-I 0 W/m 10,3 km/h (2 Bft)
08.02.2014 00:40 4,3 C 2,2 C 87 % 1000,2 hPa 0,0 l/m 0 min 0 min 0,0 UV-I 0 W/m 10,3 km/h (2 Bft)
08.02.2014 00:42 4,3 C 2,2 C 87 % 1000,2 hPa 0,0 l/m 0 min 0 min 0,0 UV-I 0 W/m 5,1 km/h (1 Bft)
08.02.2014 00:44 4,3 C 2,2 C 87 % 1000,1 hPa 0,0 l/m 0 min 0 min 0,0 UV-I 0 W/m 2,6 km/h (1 Bft)
08.02.2014 00:46 4,3 C 2,2 C 87 % 1000,1 hPa 0,0 l/m 0 min 0 min 0,0 UV-I 0 W/m 5,1 km/h (1 Bft)
08.02.2014 00:48 4,2 C 2,2 C 87 % 1000,1 hPa 0,0 l/m 0 min 0 min 0,0 UV-I 0 W/m 5,1 km/h (1 Bft)
08.02.2014 00:50 4,2 C 2,2 C 87 % 1000,0 hPa 0,0 l/m 0 min 0 min 0,0 UV-I 0 W/m 7,7 km/h (2 Bft)
08.02.2014 00:52 4,2 C 2,2 C 87 % 1000,0 hPa 0,0 l/m 0 min 0 min 0,0 UV-I 0 W/m 15,4 km/h (3 Bft)
08.02.2014 00:54 4,2 C 2,2 C 87 % 999,9 hPa 0,0 l/m 0 min 0 min 0,0 UV-I 0 W/m 10,3 km/h (2 Bft)
08.02.2014 00:56 4,2 C 2,2 C 87 % 999,8 hPa 0,0 l/m 0 min 0 min 0,0 UV-I 0 W/m 7,7 km/h (2 Bft)
08.02.2014 00:58 4,1 C 2,2 C 87 % 999,8 hPa 0,0 l/m 0 min 0 min 0,0 UV-I 0 W/m 5,1 km/h (1 Bft)
08.02.2014 01:00 4,1 C 1,7 C 87 % 999,7 hPa 0,0 l/m 0 min 0 min 0,0 UV-I 0 W/m 0,0 km/h (0 Bft)
08.02.2014 01:02 4,1 C 1,7 C 87 % 999,7 hPa 0,0 l/m 0 min 0 min 0,0 UV-I 0 W/m 0,0 km/h (0 Bft)
08.02.2014 01:04 4,0 C 1,7 C 87 % 999,7 hPa 0,0 l/m 0 min 0 min 0,0 UV-I 0 W/m 0,0 km/h (0 Bft)
08.02.2014 01:06 3,9 C 1,7 C 87 % 999,8 hPa 0,0 l/m 0 min 0 min 0,0 UV-I 0 W/m 0,0 km/h (0 Bft)
08.02.2014 01:08 3,9 C 1,7 C 87 % 999,7 hPa 0,0 l/m 0 min 0 min 0,0 UV-I 0 W/m 0,0 km/h (0 Bft)
08.02.2014 01:10 3,8 C 1,7 C 87 % 999,7 hPa 0,0 l/m 0 min 0 min 0,0 UV-I 0 W/m 0,0 km/h (0 Bft)
08.02.2014 01:12 3,8 C 1,7 C 88 % 999,8 hPa 0,0 l/m 0 min 0 min 0,0 UV-I 0 W/m 0,0 km/h (0 Bft)
08.02.2014 01:14 3,8 C 1,7 C 88 % 999,8 hPa 0,0 l/m 0 min 0 min 0,0 UV-I 0 W/m 7,7 km/h (2 Bft)
08.02.2014 01:16 3,7 C 1,7 C 88 % 999,7 hPa 0,0 l/m 0 min 0 min 0,0 UV-I 0 W/m 7,7 km/h (2 Bft)
08.02.2014 01:18 3,7 C 1,7 C 88 % 999,7 hPa 0,0 l/m 0 min 0 min 0,0 UV-I 0 W/m 5,1 km/h (1 Bft)
08.02.2014 01:20 3,7 C 1,7 C 88 % 999,7 hPa 0,0 l/m 0 min 0 min 0,0 UV-I 0 W/m 7,7 km/h (2 Bft)
08.02.2014 01:22 3,6 C 1,7 C 88 % 999,6 hPa 0,0 l/m 0 min 0 min 0,0 UV-I 0 W/m 2,6 km/h (1 Bft)
08.02.2014 01:24 3,6 C 1,7 C 88 % 999,7 hPa 0,0 l/m 0 min 0 min 0,0 UV-I 0 W/m 0,0 km/h (0 Bft)
08.02.2014 01:26 3,6 C 1,7 C 88 % 999,7 hPa 0,0 l/m 0 min 0 min 0,0 UV-I 0 W/m 5,1 km/h (1 Bft)
08.02.2014 01:28 3,6 C 1,7 C 88 % 999,6 hPa 0,0 l/m 0 min 0 min 0,0 UV-I 0 W/m 7,7 km/h (2 Bft)
08.02.2014 01:30 3,5 C 1,7 C 88 % 999,6 hPa 0,0 l/m 0 min 0 min 0,0 UV-I 0 W/m 10,3 km/h (2 Bft)
08.02.2014 01:32 3,5 C 1,7 C 88 % 999,5 hPa 0,0 l/m 0 min 0 min 0,0 UV-I 0 W/m 10,3 km/h (2 Bft)
08.02.2014 01:34 3,5 C 1,7 C 88 % 999,5 hPa 0,0 l/m 0 min 0 min 0,0 UV-I 0 W/m 10,3 km/h (2 Bft)
08.02.2014 01:36 3,5 C 1,7 C 88 % 999,5 hPa 0,0 l/m 0 min 0 min 0,0 UV-I 0 W/m 7,7 km/h (2 Bft)
08.02.2014 01:38 3,5 C 1,7 C 88 % 999,5 hPa 0,0 l/m 0 min 0 min 0,0 UV-I 0 W/m 7,7 km/h (2 Bft)
08.02.2014 01:40 3,5 C 1,7 C 88 % 999,5 hPa 0,0 l/m 0 min 0 min 0,0 UV-I 0 W/m 10,3 km/h (2 Bft)
08.02.2014 01:42 3,4 C 1,7 C 88 % 999,5 hPa 0,0 l/m 0 min 0 min 0,0 UV-I 0 W/m 10,3 km/h (2 Bft)
08.02.2014 01:44 3,4 C 1,7 C 88 % 999,5 hPa 0,0 l/m 0 min 0 min 0,0 UV-I 0 W/m 10,3 km/h (2 Bft)
08.02.2014 01:46 3,4 C 1,7 C 88 % 999,4 hPa 0,0 l/m 0 min 0 min 0,0 UV-I 0 W/m 10,3 km/h (2 Bft)
08.02.2014 01:48 3,4 C 1,7 C 88 % 999,3 hPa 0,0 l/m 0 min 0 min 0,0 UV-I 0 W/m 10,3 km/h (2 Bft)
08.02.2014 01:50 3,4 C 1,7 C 88 % 999,3 hPa 0,0 l/m 0 min 0 min 0,0 UV-I 0 W/m 0,0 km/h (0 Bft)
08.02.2014 01:52 3,4 C 1,7 C 88 % 999,3 hPa 0,0 l/m 0 min 0 min 0,0 UV-I 0 W/m 10,3 km/h (2 Bft)
08.02.2014 01:54 3,4 C 1,7 C 88 % 999,1 hPa 0,0 l/m 0 min 0 min 0,0 UV-I 0 W/m 5,1 km/h (1 Bft)
08.02.2014 01:56 3,4 C 1,7 C 88 % 999,1 hPa 0,0 l/m 0 min 0 min 0,0 UV-I 0 W/m 10,3 km/h (2 Bft)
08.02.2014 01:58 3,4 C 1,7 C 88 % 999,0 hPa 0,0 l/m 0 min 0 min 0,0 UV-I 0 W/m 7,7 km/h (2 Bft)
08.02.2014 02:00 3,4 C 1,7 C 88 % 999,0 hPa 0,0 l/m 0 min 0 min 0,0 UV-I 0 W/m 12,9 km/h (3 Bft)
08.02.2014 02:02 3,4 C 1,7 C 88 % 999,0 hPa 0,0 l/m 0 min 0 min 0,0 UV-I 0 W/m 15,4 km/h (3 Bft)
08.02.2014 02:04 3,4 C 1,7 C 88 % 999,0 hPa 0,0 l/m 0 min 0 min 0,0 UV-I 0 W/m 7,7 km/h (2 Bft)
08.02.2014 02:06 3,4 C 1,7 C 88 % 998,8 hPa 0,0 l/m 0 min 0 min 0,0 UV-I 0 W/m 10,3 km/h (2 Bft)
08.02.2014 02:08 3,4 C 1,7 C 88 % 998,7 hPa 0,0 l/m 0 min 0 min 0,0 UV-I 0 W/m 7,7 km/h (2 Bft)
08.02.2014 02:10 3,4 C 1,7 C 88 % 998,7 hPa 0,0 l/m 0 min 0 min 0,0 UV-I 0 W/m 12,9 km/h (3 Bft)
08.02.2014 02:12 3,4 C 1,7 C 88 % 998,6 hPa 0,0 l/m 0 min 0 min 0,0 UV-I 0 W/m 15,4 km/h (3 Bft)
08.02.2014 02:14 3,4 C 1,7 C 88 % 998,7 hPa 0,0 l/m 0 min 0 min 0,0 UV-I 0 W/m 20,6 km/h (4 Bft)
08.02.2014 02:16 3,4 C 1,7 C 88 % 998,6 hPa 0,0 l/m 0 min 0 min 0,0 UV-I 0 W/m 10,3 km/h (2 Bft)
08.02.2014 02:18 3,3 C 1,7 C 88 % 998,5 hPa 0,0 l/m 0 min 0 min 0,0 UV-I 0 W/m 10,3 km/h (2 Bft)
08.02.2014 02:20 3,3 C 1,7 C 88 % 998,6 hPa 0,0 l/m 0 min 0 min 0,0 UV-I 0 W/m 15,4 km/h (3 Bft)
08.02.2014 02:22 3,3 C 1,7 C 88 % 998,4 hPa 0,0 l/m 0 min 0 min 0,0 UV-I 0 W/m 12,9 km/h (3 Bft)
08.02.2014 02:24 3,3 C 1,7 C 88 % 998,4 hPa 0,0 l/m 0 min 0 min 0,0 UV-I 0 W/m 15,4 km/h (3 Bft)
08.02.2014 02:26 3,3 C 1,7 C 88 % 998,5 hPa 0,0 l/m 0 min 0 min 0,0 UV-I 0 W/m 15,4 km/h (3 Bft)
08.02.2014 02:28 3,3 C 1,7 C 88 % 998,5 hPa 0,0 l/m 0 min 0 min 0,0 UV-I 0 W/m 15,4 km/h (3 Bft)
08.02.2014 02:30 3,2 C 1,7 C 88 % 998,4 hPa 0,0 l/m 0 min 0 min 0,0 UV-I 0 W/m 20,6 km/h (4 Bft)
08.02.2014 02:32 3,2 C 1,7 C 88 % 998,4 hPa 0,0 l/m 0 min 0 min 0,0 UV-I 0 W/m 12,9 km/h (3 Bft)
08.02.2014 02:34 3,2 C 1,7 C 88 % 998,4 hPa 0,0 l/m 0 min 0 min 0,0 UV-I 0 W/m 18,0 km/h (3 Bft)
08.02.2014 02:36 3,2 C 1,7 C 88 % 998,4 hPa 0,0 l/m 0 min 0 min 0,0 UV-I 0 W/m 10,3 km/h (2 Bft)
08.02.2014 02:38 3,2 C 1,7 C 88 % 998,2 hPa 0,0 l/m 0 min 0 min 0,0 UV-I 0 W/m 10,3 km/h (2 Bft)
08.02.2014 02:40 3,2 C 1,7 C 89 % 998,2 hPa 0,0 l/m 0 min 0 min 0,0 UV-I 0 W/m 18,0 km/h (3 Bft)
08.02.2014 02:42 3,2 C 1,7 C 89 % 998,2 hPa 0,0 l/m 0 min 0 min 0,0 UV-I 0 W/m 18,0 km/h (3 Bft)
08.02.2014 02:44 3,1 C 1,7 C 89 % 998,3 hPa 0,0 l/m 0 min 0 min 0,0 UV-I 0 W/m 12,9 km/h (3 Bft)
08.02.2014 02:46 3,1 C 1,7 C 89 % 998,2 hPa 0,0 l/m 0 min 0 min 0,0 UV-I 0 W/m 15,4 km/h (3 Bft)
08.02.2014 02:48 3,1 C 1,7 C 89 % 998,2 hPa 0,0 l/m 0 min 0 min 0,0 UV-I 0 W/m 10,3 km/h (2 Bft)
08.02.2014 02:50 3,1 C 1,7 C 89 % 998,2 hPa 0,0 l/m 0 min 0 min 0,0 UV-I 0 W/m 15,4 km/h (3 Bft)
08.02.2014 02:52 3,1 C 1,7 C 89 % 998,1 hPa 0,0 l/m 0 min 0 min 0,0 UV-I 0 W/m 15,4 km/h (3 Bft)
08.02.2014 02:54 3,1 C 1,7 C 89 % 998,1 hPa 0,0 l/m 0 min 0 min 0,0 UV-I 0 W/m 15,4 km/h (3 Bft)
08.02.2014 02:56 3,1 C 1,7 C 89 % 998,0 hPa 0,0 l/m 0 min 0 min 0,0 UV-I 0 W/m 18,0 km/h (3 Bft)
08.02.2014 02:58 3,1 C 1,7 C 89 % 998,1 hPa 0,0 l/m 0 min 0 min 0,0 UV-I 0 W/m 15,4 km/h (3 Bft)
08.02.2014 03:00 3,1 C 1,7 C 89 % 998,1 hPa 0,0 l/m 0 min 0 min 0,0 UV-I 0 W/m 18,0 km/h (3 Bft)
08.02.2014 03:02 3,1 C 1,7 C 89 % 998,0 hPa 0,0 l/m 0 min 0 min 0,0 UV-I 0 W/m 15,4 km/h (3 Bft)
08.02.2014 03:04 3,1 C 1,7 C 89 % 997,9 hPa 0,0 l/m 0 min 0 min 0,0 UV-I 0 W/m 15,4 km/h (3 Bft)
08.02.2014 03:06 3,2 C 1,7 C 89 % 998,0 hPa 0,0 l/m 0 min 0 min 0,0 UV-I 0 W/m 18,0 km/h (3 Bft)
08.02.2014 03:08 3,2 C 1,7 C 89 % 997,9 hPa 0,0 l/m 0 min 0 min 0,0 UV-I 0 W/m 10,3 km/h (2 Bft)
08.02.2014 03:10 3,2 C 1,7 C 89 % 997,9 hPa 0,0 l/m 0 min 0 min 0,0 UV-I 0 W/m 12,9 km/h (3 Bft)
08.02.2014 03:12 3,2 C 1,7 C 90 % 997,9 hPa 0,0 l/m 0 min 0 min 0,0 UV-I 0 W/m 12,9 km/h (3 Bft)
08.02.2014 03:14 3,2 C 2,2 C 90 % 997,9 hPa 0,0 l/m 0 min 0 min 0,0 UV-I 0 W/m 15,4 km/h (3 Bft)
08.02.2014 03:16 3,2 C 2,2 C 90 % 997,8 hPa 0,0 l/m 0 min 0 min 0,0 UV-I 0 W/m 10,3 km/h (2 Bft)
08.02.2014 03:18 3,2 C 2,2 C 90 % 997,8 hPa 0,0 l/m 0 min 0 min 0,0 UV-I 0 W/m 15,4 km/h (3 Bft)
08.02.2014 03:20 3,2 C 2,2 C 90 % 997,9 hPa 0,0 l/m 0 min 0 min 0,0 UV-I 0 W/m 15,4 km/h (3 Bft)
08.02.2014 03:22 3,2 C 2,2 C 90 % 997,8 hPa 0,0 l/m 0 min 0 min 0,0 UV-I 0 W/m 12,9 km/h (3 Bft)
08.02.2014 03:24 3,3 C 2,2 C 90 % 997,8 hPa 0,0 l/m 0 min 0 min 0,0 UV-I 0 W/m 2,6 km/h (1 Bft)
08.02.2014 03:26 3,3 C 2,2 C 90 % 997,6 hPa 0,0 l/m 0 min 0 min 0,0 UV-I 0 W/m 10,3 km/h (2 Bft)
08.02.2014 03:28 3,3 C 2,2 C 90 % 997,7 hPa 0,0 l/m 0 min 0 min 0,0 UV-I 0 W/m 10,3 km/h (2 Bft)
08.02.2014 03:30 3,3 C 2,2 C 90 % 997,7 hPa 0,0 l/m 0 min 0 min 0,0 UV-I 0 W/m 12,9 km/h (3 Bft)
08.02.2014 03:32 3,3 C 2,2 C 90 % 997,7 hPa 0,0 l/m 0 min 0 min 0,0 UV-I 0 W/m 15,4 km/h (3 Bft)
08.02.2014 03:34 3,3 C 2,2 C 90 % 997,6 hPa 0,0 l/m 0 min 0 min 0,0 UV-I 0 W/m 10,3 km/h (2 Bft)
08.02.2014 03:36 3,4 C 2,2 C 90 % 997,6 hPa 0,0 l/m 0 min 0 min 0,0 UV-I 0 W/m 10,3 km/h (2 Bft)
08.02.2014 03:38 3,4 C 2,2 C 90 % 997,5 hPa 0,0 l/m 0 min 0 min 0,0 UV-I 0 W/m 7,7 km/h (2 Bft)
08.02.2014 03:40 3,4 C 2,2 C 90 % 997,4 hPa 0,0 l/m 0 min 0 min 0,0 UV-I 0 W/m 12,9 km/h (3 Bft)
08.02.2014 03:42 3,4 C 2,2 C 90 % 997,5 hPa 0,0 l/m 0 min 0 min 0,0 UV-I 0 W/m 12,9 km/h (3 Bft)
08.02.2014 03:44 3,5 C 2,2 C 90 % 997,5 hPa 0,0 l/m 0 min 0 min 0,0 UV-I 0 W/m 7,7 km/h (2 Bft)
08.02.2014 03:46 3,5 C 2,2 C 90 % 997,4 hPa 0,0 l/m 0 min 0 min 0,0 UV-I 0 W/m 15,4 km/h (3 Bft)
08.02.2014 03:48 3,6 C 2,8 C 90 % 997,4 hPa 0,0 l/m 0 min 0 min 0,0 UV-I 0 W/m 18,0 km/h (3 Bft)
08.02.2014 03:50 3,6 C 2,8 C 90 % 997,4 hPa 0,0 l/m 0 min 0 min 0,0 UV-I 0 W/m 18,0 km/h (3 Bft)
08.02.2014 03:52 3,7 C 2,8 C 90 % 997,3 hPa 0,0 l/m 0 min 0 min 0,0 UV-I 0 W/m 15,4 km/h (3 Bft)
08.02.2014 03:54 3,7 C 2,8 C 90 % 997,3 hPa 0,0 l/m 0 min 0 min 0,0 UV-I 0 W/m 12,9 km/h (3 Bft)
08.02.2014 03:56 3,8 C 2,8 C 90 % 997,3 hPa 0,0 l/m 0 min 0 min 0,0 UV-I 0 W/m 7,7 km/h (2 Bft)
08.02.2014 03:58 3,8 C 2,8 C 90 % 997,2 hPa 0,0 l/m 0 min 0 min 0,0 UV-I 0 W/m 12,9 km/h (3 Bft)
08.02.2014 04:00 3,9 C 2,8 C 90 % 997,1 hPa 0,0 l/m 0 min 0 min 0,0 UV-I 0 W/m 12,9 km/h (3 Bft)
08.02.2014 04:02 3,9 C 2,8 C 90 % 997,1 hPa 0,0 l/m 0 min 0 min 0,0 UV-I 0 W/m 15,4 km/h (3 Bft)
08.02.2014 04:04 4,0 C 2,8 C 90 % 997,1 hPa 0,0 l/m 0 min 0 min 0,0 UV-I 0 W/m 20,6 km/h (4 Bft)
08.02.2014 04:06 4,1 C 2,8 C 90 % 997,1 hPa 0,0 l/m 0 min 0 min 0,0 UV-I 0 W/m 10,3 km/h (2 Bft)
08.02.2014 04:08 4,1 C 3,3 C 90 % 997,0 hPa 0,0 l/m 0 min 0 min 0,0 UV-I 0 W/m 25,7 km/h (4 Bft)
08.02.2014 04:10 4,2 C 3,3 C 90 % 997,0 hPa 0,0 l/m 0 min 0 min 0,0 UV-I 0 W/m 20,6 km/h (4 Bft)
08.02.2014 04:12 4,3 C 3,3 C 90 % 996,9 hPa 0,0 l/m 0 min 0 min 0,0 UV-I 0 W/m 20,6 km/h (4 Bft)
08.02.2014 04:14 4,3 C 3,3 C 90 % 996,9 hPa 0,0 l/m 0 min 0 min 0,0 UV-I 0 W/m 12,9 km/h (3 Bft)
08.02.2014 04:16 4,4 C 3,3 C 90 % 996,8 hPa 0,0 l/m 0 min 0 min 0,0 UV-I 0 W/m 23,2 km/h (4 Bft)
08.02.2014 04:18 4,5 C 3,3 C 90 % 996,9 hPa 0,0 l/m 0 min 0 min 0,0 UV-I 0 W/m 23,2 km/h (4 Bft)
08.02.2014 04:20 4,6 C 3,3 C 89 % 996,8 hPa 0,0 l/m 0 min 0 min 0,0 UV-I 0 W/m 25,7 km/h (4 Bft)
08.02.2014 04:22 4,6 C 3,3 C 89 % 996,7 hPa 0,0 l/m 0 min 0 min 0,0 UV-I 0 W/m 12,9 km/h (3 Bft)
08.02.2014 04:24 4,7 C 3,9 C 89 % 996,8 hPa 0,0 l/m 0 min 0 min 0,0 UV-I 0 W/m 15,4 km/h (3 Bft)
08.02.2014 04:26 4,8 C 3,9 C 89 % 996,6 hPa 0,0 l/m 0 min 0 min 0,0 UV-I 0 W/m 10,3 km/h (2 Bft)
08.02.2014 04:28 4,8 C 3,9 C 89 % 996,6 hPa 0,0 l/m 0 min 0 min 0,0 UV-I 0 W/m 15,4 km/h (3 Bft)
08.02.2014 04:30 4,8 C 3,9 C 89 % 996,5 hPa 0,0 l/m 0 min 0 min 0,0 UV-I 0 W/m 20,6 km/h (4 Bft)
08.02.2014 04:32 4,9 C 3,9 C 89 % 996,3 hPa 0,0 l/m 0 min 0 min 0,0 UV-I 0 W/m 20,6 km/h (4 Bft)
08.02.2014 04:34 4,9 C 3,9 C 89 % 996,3 hPa 0,0 l/m 0 min 0 min 0,0 UV-I 0 W/m 18,0 km/h (3 Bft)
08.02.2014 04:36 5,0 C 3,9 C 89 % 996,3 hPa 0,0 l/m 0 min 0 min 0,0 UV-I 0 W/m 18,0 km/h (3 Bft)
08.02.2014 04:38 5,0 C 3,9 C 88 % 996,2 hPa 0,0 l/m 0 min 0 min 0,0 UV-I 0 W/m 10,3 km/h (2 Bft)
08.02.2014 04:40 5,1 C 3,9 C 88 % 996,2 hPa 0,0 l/m 0 min 0 min 0,0 UV-I 0 W/m 20,6 km/h (4 Bft)
08.02.2014 04:42 5,1 C 3,9 C 88 % 996,3 hPa 0,0 l/m 0 min 0 min 0,0 UV-I 0 W/m 23,2 km/h (4 Bft)
08.02.2014 04:44 5,1 C 3,9 C 88 % 996,3 hPa 0,0 l/m 0 min 0 min 0,0 UV-I 0 W/m 20,6 km/h (4 Bft)
08.02.2014 04:46 5,1 C 3,9 C 88 % 996,2 hPa 0,0 l/m 0 min 0 min 0,0 UV-I 0 W/m 23,2 km/h (4 Bft)
08.02.2014 04:48 5,2 C 3,9 C 88 % 996,2 hPa 0,0 l/m 0 min 0 min 0,0 UV-I 0 W/m 18,0 km/h (3 Bft)
08.02.2014 04:50 5,2 C 3,9 C 88 % 996,2 hPa 0,0 l/m 0 min 0 min 0,0 UV-I 0 W/m 18,0 km/h (3 Bft)
08.02.2014 04:52 5,2 C 3,9 C 88 % 996,1 hPa 0,0 l/m 0 min 0 min 0,0 UV-I 0 W/m 15,4 km/h (3 Bft)
08.02.2014 04:54 5,2 C 3,9 C 87 % 996,2 hPa 0,0 l/m 0 min 0 min 0,0 UV-I 0 W/m 18,0 km/h (3 Bft)
08.02.2014 04:56 5,3 C 3,9 C 87 % 996,2 hPa 0,0 l/m 0 min 0 min 0,0 UV-I 0 W/m 28,3 km/h (4 Bft)
08.02.2014 04:58 5,3 C 3,9 C 87 % 996,1 hPa 0,0 l/m 0 min 0 min 0,0 UV-I 0 W/m 18,0 km/h (3 Bft)
08.02.2014 05:00 5,3 C 3,9 C 87 % 996,2 hPa 0,0 l/m 0 min 0 min 0,0 UV-I 0 W/m 15,4 km/h (3 Bft)
08.02.2014 05:02 5,3 C 3,9 C 87 % 995,9 hPa 0,0 l/m 0 min 0 min 0,0 UV-I 0 W/m 10,3 km/h (2 Bft)
08.02.2014 05:04 5,4 C 3,9 C 87 % 995,9 hPa 0,0 l/m 0 min 0 min 0,0 UV-I 0 W/m 12,9 km/h (3 Bft)
08.02.2014 05:06 5,4 C 3,9 C 87 % 995,9 hPa 0,0 l/m 0 min 0 min 0,0 UV-I 0 W/m 15,4 km/h (3 Bft)
08.02.2014 05:08 5,4 C 3,9 C 87 % 995,9 hPa 0,0 l/m 0 min 0 min 0,0 UV-I 0 W/m 18,0 km/h (3 Bft)
08.02.2014 05:10 5,4 C 3,9 C 87 % 995,9 hPa 0,0 l/m 0 min 0 min 0,0 UV-I 0 W/m 10,3 km/h (2 Bft)
08.02.2014 05:12 5,4 C 3,9 C 87 % 995,8 hPa 0,0 l/m 0 min 0 min 0,0 UV-I 0 W/m 15,4 km/h (3 Bft)
08.02.2014 05:14 5,4 C 3,9 C 87 % 995,8 hPa 0,0 l/m 0 min 0 min 0,0 UV-I 0 W/m 15,4 km/h (3 Bft)
08.02.2014 05:16 5,4 C 3,9 C 86 % 995,7 hPa 0,0 l/m 0 min 0 min 0,0 UV-I 0 W/m 18,0 km/h (3 Bft)
08.02.2014 05:18 5,4 C 3,9 C 87 % 995,6 hPa 0,0 l/m 0 min 0 min 0,0 UV-I 0 W/m 10,3 km/h (2 Bft)
08.02.2014 05:20 5,4 C 3,9 C 87 % 995,5 hPa 0,0 l/m 0 min 0 min 0,0 UV-I 0 W/m 18,0 km/h (3 Bft)
08.02.2014 05:22 5,4 C 3,9 C 86 % 995,4 hPa 0,0 l/m 0 min 0 min 0,0 UV-I 0 W/m 20,6 km/h (4 Bft)
08.02.2014 05:24 5,4 C 3,9 C 86 % 995,4 hPa 0,0 l/m 0 min 0 min 0,0 UV-I 0 W/m 18,0 km/h (3 Bft)
08.02.2014 05:26 5,4 C 3,9 C 86 % 995,4 hPa 0,0 l/m 0 min 0 min 0,0 UV-I 0 W/m 15,4 km/h (3 Bft)
08.02.2014 05:28 5,4 C 3,9 C 86 % 995,5 hPa 0,0 l/m 0 min 0 min 0,0 UV-I 0 W/m 18,0 km/h (3 Bft)
08.02.2014 05:30 5,4 C 3,9 C 86 % 995,4 hPa 0,0 l/m 0 min 0 min 0,0 UV-I 0 W/m 12,9 km/h (3 Bft)
08.02.2014 05:32 5,4 C 3,9 C 86 % 995,4 hPa 0,0 l/m 0 min 0 min 0,0 UV-I 0 W/m 10,3 km/h (2 Bft)
08.02.2014 05:34 5,4 C 3,9 C 86 % 995,4 hPa 0,0 l/m 0 min 0 min 0,0 UV-I 0 W/m 12,9 km/h (3 Bft)
08.02.2014 05:36 5,4 C 3,9 C 86 % 995,2 hPa 0,0 l/m 0 min 0 min 0,0 UV-I 0 W/m 23,2 km/h (4 Bft)
08.02.2014 05:38 5,4 C 3,9 C 86 % 995,2 hPa 0,0 l/m 0 min 0 min 0,0 UV-I 0 W/m 18,0 km/h (3 Bft)
08.02.2014 05:40 5,5 C 3,9 C 86 % 995,2 hPa 0,0 l/m 0 min 0 min 0,0 UV-I 0 W/m 15,4 km/h (3 Bft)
08.02.2014 05:42 5,5 C 3,9 C 86 % 995,1 hPa 0,0 l/m 0 min 0 min 0,0 UV-I 0 W/m 15,4 km/h (3 Bft)
08.02.2014 05:44 5,5 C 3,9 C 86 % 995,2 hPa 0,0 l/m 0 min 0 min 0,0 UV-I 0 W/m 20,6 km/h (4 Bft)
08.02.2014 05:46 5,5 C 3,9 C 86 % 995,2 hPa 0,0 l/m 0 min 0 min 0,0 UV-I 0 W/m 20,6 km/h (4 Bft)
08.02.2014 05:48 5,5 C 3,9 C 86 % 995,0 hPa 0,0 l/m 0 min 0 min 0,0 UV-I 0 W/m 18,0 km/h (3 Bft)
08.02.2014 05:50 5,5 C 3,9 C 86 % 995,0 hPa 0,0 l/m 0 min 0 min 0,0 UV-I 0 W/m 23,2 km/h (4 Bft)
08.02.2014 05:52 5,6 C 3,9 C 86 % 994,9 hPa 0,0 l/m 0 min 0 min 0,0 UV-I 0 W/m 18,0 km/h (3 Bft)
08.02.2014 05:54 5,6 C 3,9 C 86 % 994,9 hPa 0,0 l/m 0 min 0 min 0,0 UV-I 0 W/m 20,6 km/h (4 Bft)
08.02.2014 05:56 5,6 C 3,9 C 86 % 994,9 hPa 0,0 l/m 0 min 0 min 0,0 UV-I 0 W/m 20,6 km/h (4 Bft)
08.02.2014 05:58 5,6 C 3,9 C 86 % 994,8 hPa 0,0 l/m 0 min 0 min 0,0 UV-I 0 W/m 15,4 km/h (3 Bft)
08.02.2014 06:00 5,6 C 3,9 C 86 % 994,9 hPa 0,0 l/m 0 min 0 min 0,0 UV-I 0 W/m 18,0 km/h (3 Bft)
08.02.2014 06:04 5,6 C 3,9 C 86 % 994,9 hPa 0,0 l/m 0 min 0 min 0,0 UV-I 0 W/m 23,2 km/h (4 Bft)
08.02.2014 06:06 5,6 C 3,9 C 86 % 994,8 hPa 0,0 l/m 0 min 0 min 0,0 UV-I 0 W/m 20,6 km/h (4 Bft)
08.02.2014 06:10 5,6 C 3,9 C 86 % 994,8 hPa 0,0 l/m 0 min 0 min 0,0 UV-I 0 W/m 28,3 km/h (4 Bft)
08.02.2014 06:18 5,6 C 3,9 C 86 % 994,4 hPa 0,0 l/m 0 min 0 min 0,0 UV-I 0 W/m 12,9 km/h (3 Bft)
08.02.2014 06:20 5,6 C 3,9 C 86 % 994,4 hPa 0,0 l/m 0 min 0 min 0,0 UV-I 0 W/m 25,7 km/h (4 Bft)
08.02.2014 06:22 5,7 C 3,9 C 86 % 994,3 hPa 0,0 l/m 0 min 0 min 0,0 UV-I 0 W/m 18,0 km/h (3 Bft)
08.02.2014 06:24 5,7 C 3,9 C 86 % 994,2 hPa 0,0 l/m 0 min 0 min 0,0 UV-I 0 W/m 20,6 km/h (4 Bft)
08.02.2014 06:26 5,7 C 3,9 C 86 % 994,2 hPa 0,0 l/m 0 min 0 min 0,0 UV-I 0 W/m 20,6 km/h (4 Bft)
08.02.2014 06:28 5,7 C 3,9 C 86 % 994,2 hPa 0,0 l/m 0 min 0 min 0,0 UV-I 0 W/m 23,2 km/h (4 Bft)
08.02.2014 06:30 5,7 C 3,9 C 86 % 994,2 hPa 0,0 l/m 0 min 0 min 0,0 UV-I 0 W/m 15,4 km/h (3 Bft)
08.02.2014 06:32 5,7 C 3,9 C 86 % 994,2 hPa 0,0 l/m 0 min 0 min 0,0 UV-I 0 W/m 20,6 km/h (4 Bft)
08.02.2014 06:34 5,7 C 4,4 C 86 % 994,2 hPa 0,0 l/m 0 min 0 min 0,0 UV-I 0 W/m 23,2 km/h (4 Bft)
08.02.2014 06:36 5,7 C 4,4 C 86 % 994,2 hPa 0,0 l/m 0 min 0 min 0,0 UV-I 0 W/m 20,6 km/h (4 Bft)
08.02.2014 06:38 5,8 C 4,4 C 86 % 994,1 hPa 0,0 l/m 0 min 0 min 0,0 UV-I 0 W/m 18,0 km/h (3 Bft)
08.02.2014 06:40 5,8 C 4,4 C 86 % 994,0 hPa 0,0 l/m 0 min 0 min 0,0 UV-I 0 W/m 12,9 km/h (3 Bft)
08.02.2014 06:42 5,8 C 4,4 C 86 % 994,0 hPa 0,0 l/m 0 min 0 min 0,0 UV-I 0 W/m 5,1 km/h (1 Bft)
08.02.2014 06:44 5,8 C 3,9 C 86 % 994,0 hPa 0,0 l/m 0 min 0 min 0,0 UV-I 0 W/m 15,4 km/h (3 Bft)
08.02.2014 06:46 5,8 C 3,9 C 86 % 993,9 hPa 0,0 l/m 0 min 0 min 0,0 UV-I 0 W/m 10,3 km/h (2 Bft)
08.02.2014 06:48 5,8 C 3,9 C 86 % 993,9 hPa 0,0 l/m 0 min 0 min 0,0 UV-I 0 W/m 20,6 km/h (4 Bft)
08.02.2014 06:50 5,8 C 3,9 C 86 % 993,8 hPa 0,0 l/m 0 min 0 min 0,0 UV-I 0 W/m 12,9 km/h (3 Bft)
08.02.2014 06:52 5,8 C 4,4 C 86 % 993,9 hPa 0,0 l/m 0 min 0 min 0,0 UV-I 0 W/m 18,0 km/h (3 Bft)
08.02.2014 06:54 5,8 C 4,4 C 86 % 993,8 hPa 0,0 l/m 0 min 0 min 0,0 UV-I 0 W/m 12,9 km/h (3 Bft)
08.02.2014 06:56 5,8 C 4,4 C 86 % 993,7 hPa 0,0 l/m 0 min 0 min 0,0 UV-I 0 W/m 10,3 km/h (2 Bft)
08.02.2014 06:58 5,8 C 3,9 C 86 % 993,8 hPa 0,0 l/m 0 min 0 min 0,0 UV-I 0 W/m 10,3 km/h (2 Bft)
08.02.2014 07:00 5,8 C 3,9 C 86 % 993,7 hPa 0,0 l/m 0 min 0 min 0,0 UV-I 0 W/m 12,9 km/h (3 Bft)
08.02.2014 07:02 5,8 C 4,4 C 86 % 993,7 hPa 0,0 l/m 0 min 0 min 0,0 UV-I 0 W/m 10,3 km/h (2 Bft)
08.02.2014 07:04 5,8 C 4,4 C 86 % 993,6 hPa 0,0 l/m 0 min 0 min 0,0 UV-I 0 W/m 12,9 km/h (3 Bft)
08.02.2014 07:06 5,8 C 4,4 C 86 % 993,5 hPa 0,0 l/m 0 min 0 min 0,0 UV-I 0 W/m 15,4 km/h (3 Bft)
08.02.2014 07:08 5,8 C 4,4 C 86 % 993,5 hPa 0,0 l/m 0 min 0 min 0,0 UV-I 0 W/m 10,3 km/h (2 Bft)
08.02.2014 07:10 5,8 C 4,4 C 86 % 993,5 hPa 0,0 l/m 0 min 0 min 0,0 UV-I 0 W/m 10,3 km/h (2 Bft)
08.02.2014 07:12 5,8 C 4,4 C 86 % 993,5 hPa 0,0 l/m 0 min 0 min 0,0 UV-I 0 W/m 15,4 km/h (3 Bft)
08.02.2014 07:14 5,9 C 4,4 C 86 % 993,5 hPa 0,0 l/m 0 min 0 min 0,0 UV-I 0 W/m 12,9 km/h (3 Bft)
08.02.2014 07:16 5,9 C 4,4 C 86 % 993,5 hPa 0,0 l/m 0 min 0 min 0,0 UV-I 0 W/m 18,0 km/h (3 Bft)
08.02.2014 07:18 5,9 C 4,4 C 86 % 993,5 hPa 0,0 l/m 0 min 0 min 0,0 UV-I 0 W/m 23,2 km/h (4 Bft)
08.02.2014 07:20 5,9 C 4,4 C 86 % 993,5 hPa 0,0 l/m 0 min 0 min 0,0 UV-I 0 W/m 18,0 km/h (3 Bft)
08.02.2014 07:22 5,9 C 4,4 C 86 % 993,5 hPa 0,0 l/m 0 min 0 min 0,0 UV-I 0 W/m 23,2 km/h (4 Bft)
08.02.2014 07:24 5,9 C 4,4 C 86 % 993,4 hPa 0,0 l/m 0 min 0 min 0,0 UV-I 0 W/m 15,4 km/h (3 Bft)
08.02.2014 07:26 6,0 C 4,4 C 86 % 993,4 hPa 0,0 l/m 0 min 0 min 0,0 UV-I 0 W/m 20,6 km/h (4 Bft)
08.02.2014 07:28 6,0 C 4,4 C 86 % 993,4 hPa 0,0 l/m 0 min 0 min 0,0 UV-I 0 W/m 18,0 km/h (3 Bft)
08.02.2014 07:30 6,1 C 4,4 C 86 % 993,4 hPa 0,0 l/m 0 min 0 min 0,0 UV-I 0 W/m 18,0 km/h (3 Bft)
08.02.2014 07:32 6,1 C 4,4 C 86 % 993,3 hPa 0,0 l/m 0 min 0 min 0,0 UV-I 0 W/m 23,2 km/h (4 Bft)
08.02.2014 07:34 6,1 C 4,4 C 86 % 993,2 hPa 0,0 l/m 0 min 0 min 0,0 UV-I 0 W/m 10,3 km/h (2 Bft)
08.02.2014 07:36 6,1 C 4,4 C 86 % 993,2 hPa 0,0 l/m 0 min 0 min 0,0 UV-I 0 W/m 15,4 km/h (3 Bft)
08.02.2014 07:38 6,2 C 4,4 C 86 % 993,2 hPa 0,0 l/m 0 min 0 min 0,0 UV-I 0 W/m 12,9 km/h (3 Bft)
08.02.2014 07:40 6,2 C 5,0 C 86 % 993,2 hPa 0,0 l/m 0 min 0 min 0,0 UV-I 0 W/m 18,0 km/h (3 Bft)
08.02.2014 07:42 6,2 C 5,0 C 86 % 993,2 hPa 0,0 l/m 0 min 0 min 0,0 UV-I 0 W/m 18,0 km/h (3 Bft)
08.02.2014 07:44 6,3 C 5,0 C 86 % 993,2 hPa 0,0 l/m 0 min 0 min 0,0 UV-I 0 W/m 15,4 km/h (3 Bft)
08.02.2014 07:46 6,3 C 5,0 C 86 % 993,1 hPa 0,0 l/m 0 min 0 min 0,0 UV-I 0 W/m 12,9 km/h (3 Bft)
08.02.2014 07:48 6,4 C 5,0 C 86 % 993,1 hPa 0,0 l/m 0 min 0 min 0,0 UV-I 0 W/m 23,2 km/h (4 Bft)
08.02.2014 07:50 6,4 C 5,0 C 85 % 993,1 hPa 0,0 l/m 0 min 0 min 0,0 UV-I 0 W/m 25,7 km/h (4 Bft)
08.02.2014 07:52 6,5 C 5,0 C 85 % 993,1 hPa 0,0 l/m 0 min 0 min 0,0 UV-I 0 W/m 25,7 km/h (4 Bft)
08.02.2014 07:54 6,6 C 5,6 C 85 % 993,0 hPa 0,0 l/m 0 min 0 min 0,0 UV-I 0 W/m 18,0 km/h (3 Bft)
08.02.2014 07:56 6,6 C 5,6 C 85 % 993,1 hPa 0,0 l/m 0 min 0 min 0,0 UV-I 0 W/m 15,4 km/h (3 Bft)
08.02.2014 07:58 6,7 C 5,6 C 85 % 993,0 hPa 0,0 l/m 0 min 0 min 0,0 UV-I 0 W/m 18,0 km/h (3 Bft)
08.02.2014 08:00 6,7 C 5,6 C 85 % 992,9 hPa 0,0 l/m 0 min 0 min 0,0 UV-I 0 W/m 12,9 km/h (3 Bft)
08.02.2014 08:02 6,8 C 5,6 C 84 % 992,9 hPa 0,0 l/m 0 min 0 min 0,0 UV-I 0 W/m 20,6 km/h (4 Bft)
08.02.2014 08:04 6,9 C 5,6 C 84 % 992,9 hPa 0,0 l/m 0 min 0 min 0,0 UV-I 0 W/m 30,9 km/h (5 Bft)
08.02.2014 08:06 6,9 C 5,6 C 84 % 992,9 hPa 0,0 l/m 0 min 0 min 0,0 UV-I 0 W/m 20,6 km/h (4 Bft)
08.02.2014 08:08 7,0 C 5,6 C 83 % 992,9 hPa 0,0 l/m 0 min 0 min 0,0 UV-I 0 W/m 23,2 km/h (4 Bft)
08.02.2014 08:10 7,1 C 6,1 C 83 % 992,8 hPa 0,0 l/m 0 min 0 min 0,0 UV-I 0 W/m 25,7 km/h (4 Bft)
08.02.2014 08:12 7,2 C 6,1 C 83 % 992,7 hPa 0,0 l/m 0 min 0 min 0,0 UV-I 0 W/m 23,2 km/h (4 Bft)
08.02.2014 08:14 7,2 C 6,1 C 82 % 992,7 hPa 0,0 l/m 0 min 0 min 0,0 UV-I 0 W/m 25,7 km/h (4 Bft)
08.02.2014 08:16 7,3 C 6,1 C 82 % 992,7 hPa 0,0 l/m 0 min 0 min 0,0 UV-I 5 W/m 18,0 km/h (3 Bft)
08.02.2014 08:18 7,3 C 6,1 C 82 % 992,7 hPa 0,0 l/m 0 min 0 min 0,0 UV-I 5 W/m 23,2 km/h (4 Bft)
08.02.2014 08:20 7,4 C 6,1 C 81 % 992,7 hPa 0,0 l/m 0 min 0 min 0,0 UV-I 7 W/m 28,3 km/h (4 Bft)
08.02.2014 08:22 7,4 C 6,1 C 81 % 992,7 hPa 0,0 l/m 0 min 0 min 0,0 UV-I 7 W/m 20,6 km/h (4 Bft)
08.02.2014 08:24 7,5 C 6,1 C 81 % 992,7 hPa 0,0 l/m 0 min 0 min 0,0 UV-I 7 W/m 20,6 km/h (4 Bft)
08.02.2014 08:26 7,6 C 6,1 C 81 % 992,6 hPa 0,0 l/m 0 min 0 min 0,0 UV-I 7 W/m 18,0 km/h (3 Bft)
08.02.2014 08:28 7,6 C 6,1 C 80 % 992,6 hPa 0,0 l/m 0 min 0 min 0,0 UV-I 7 W/m 23,2 km/h (4 Bft)
08.02.2014 08:30 7,7 C 6,1 C 80 % 992,5 hPa 0,0 l/m 0 min 0 min 0,0 UV-I 7 W/m 30,9 km/h (5 Bft)
08.02.2014 08:32 7,7 C 6,1 C 80 % 992,6 hPa 0,0 l/m 0 min 0 min 0,0 UV-I 9 W/m 25,7 km/h (4 Bft)
08.02.2014 08:34 7,7 C 6,1 C 80 % 992,7 hPa 0,0 l/m 0 min 0 min 0,0 UV-I 11 W/m 20,6 km/h (4 Bft)
08.02.2014 08:36 7,7 C 6,1 C 80 % 992,5 hPa 0,0 l/m 0 min 0 min 0,0 UV-I 12 W/m 18,0 km/h (3 Bft)
08.02.2014 08:38 7,7 C 6,1 C 80 % 992,5 hPa 0,0 l/m 0 min 0 min 0,0 UV-I 18 W/m 33,5 km/h (5 Bft)
08.02.2014 08:40 7,8 C 6,1 C 80 % 992,5 hPa 0,0 l/m 0 min 0 min 0,0 UV-I 18 W/m 12,9 km/h (3 Bft)
08.02.2014 08:42 7,8 C 6,1 C 80 % 992,6 hPa 0,0 l/m 0 min 2 min 0,0 UV-I 19 W/m 25,7 km/h (4 Bft)
08.02.2014 08:44 7,8 C 6,1 C 80 % 992,5 hPa 0,0 l/m 0 min 0 min 0,0 UV-I 19 W/m 18,0 km/h (3 Bft)
08.02.2014 08:46 7,8 C 6,1 C 80 % 992,5 hPa 0,0 l/m 0 min 2 min 0,0 UV-I 21 W/m 18,0 km/h (3 Bft)
08.02.2014 08:48 7,8 C 6,1 C 80 % 992,4 hPa 0,0 l/m 0 min 2 min 0,0 UV-I 21 W/m 23,2 km/h (4 Bft)
08.02.2014 08:50 7,8 C 6,1 C 80 % 992,4 hPa 0,0 l/m 0 min 2 min 0,0 UV-I 21 W/m 28,3 km/h (4 Bft)
08.02.2014 08:52 7,8 C 6,1 C 80 % 992,4 hPa 0,0 l/m 0 min 2 min 0,0 UV-I 21 W/m 30,9 km/h (5 Bft)
08.02.2014 08:54 7,8 C 6,1 C 80 % 992,4 hPa 0,0 l/m 0 min 0 min 0,0 UV-I 23 W/m 20,6 km/h (4 Bft)
08.02.2014 08:56 7,8 C 6,1 C 80 % 992,2 hPa 0,0 l/m 0 min 0 min 0,0 UV-I 19 W/m 18,0 km/h (3 Bft)
08.02.2014 08:58 7,8 C 6,1 C 80 % 992,2 hPa 0,0 l/m 0 min 0 min 0,0 UV-I 19 W/m 30,9 km/h (5 Bft)
08.02.2014 09:00 7,8 C 6,1 C 80 % 992,2 hPa 0,0 l/m 0 min 0 min 0,0 UV-I 18 W/m 20,6 km/h (4 Bft)
08.02.2014 09:02 7,8 C 6,1 C 80 % 992,2 hPa 0,0 l/m 0 min 0 min 0,0 UV-I 18 W/m 20,6 km/h (4 Bft)
08.02.2014 09:04 7,8 C 6,1 C 79 % 992,1 hPa 0,0 l/m 0 min 0 min 0,0 UV-I 19 W/m 36,0 km/h (5 Bft)
08.02.2014 09:06 7,8 C 6,1 C 80 % 992,0 hPa 0,0 l/m 0 min 0 min 0,0 UV-I 19 W/m 18,0 km/h (3 Bft)
08.02.2014 09:08 7,8 C 6,1 C 80 % 992,0 hPa 0,0 l/m 0 min 0 min 0,0 UV-I 23 W/m 18,0 km/h (3 Bft)
08.02.2014 09:10 7,8 C 6,1 C 80 % 991,9 hPa 0,0 l/m 0 min 0 min 0,0 UV-I 26 W/m 20,6 km/h (4 Bft)
08.02.2014 09:12 7,8 C 6,1 C 80 % 991,9 hPa 0,0 l/m 0 min 0 min 0,0 UV-I 26 W/m 28,3 km/h (4 Bft)
08.02.2014 09:14 7,7 C 6,1 C 80 % 991,9 hPa 0,0 l/m 0 min 0 min 0,0 UV-I 26 W/m 28,3 km/h (4 Bft)
08.02.2014 09:16 7,7 C 6,1 C 80 % 991,9 hPa 0,0 l/m 0 min 0 min 0,0 UV-I 25 W/m 25,7 km/h (4 Bft)
08.02.2014 09:18 7,7 C 6,1 C 80 % 992,0 hPa 0,0 l/m 0 min 0 min 0,0 UV-I 30 W/m 30,9 km/h (5 Bft)
08.02.2014 09:20 7,6 C 5,6 C 80 % 991,8 hPa 0,0 l/m 0 min 0 min 0,0 UV-I 28 W/m 25,7 km/h (4 Bft)
08.02.2014 09:22 7,6 C 5,6 C 80 % 991,9 hPa 0,0 l/m 0 min 0 min 0,0 UV-I 28 W/m 28,3 km/h (4 Bft)
08.02.2014 09:24 7,6 C 5,6 C 80 % 991,9 hPa 0,0 l/m 0 min 0 min 0,0 UV-I 30 W/m 23,2 km/h (4 Bft)
08.02.2014 09:26 7,6 C 5,6 C 80 % 991,8 hPa 0,0 l/m 0 min 2 min 0,0 UV-I 35 W/m 20,6 km/h (4 Bft)
08.02.2014 09:28 7,5 C 5,6 C 81 % 991,8 hPa 0,0 l/m 0 min 0 min 0,0 UV-I 37 W/m 23,2 km/h (4 Bft)
08.02.2014 09:30 7,5 C 5,6 C 81 % 991,8 hPa 0,0 l/m 0 min 2 min 0,0 UV-I 42 W/m 25,7 km/h (4 Bft)
08.02.2014 09:32 7,4 C 5,6 C 81 % 991,7 hPa 0,0 l/m 0 min 2 min 0,0 UV-I 46 W/m 20,6 km/h (4 Bft)
08.02.2014 09:34 7,4 C 5,6 C 81 % 991,7 hPa 0,0 l/m 0 min 2 min 0,0 UV-I 49 W/m 23,2 km/h (4 Bft)
08.02.2014 09:36 7,4 C 5,6 C 81 % 991,7 hPa 0,0 l/m 0 min 2 min 0,0 UV-I 49 W/m 23,2 km/h (4 Bft)
08.02.2014 09:38 7,4 C 5,0 C 82 % 991,6 hPa 0,0 l/m 0 min 2 min 0,0 UV-I 53 W/m 23,2 km/h (4 Bft)
08.02.2014 09:40 7,4 C 5,0 C 82 % 991,6 hPa 0,0 l/m 0 min 2 min 0,0 UV-I 49 W/m 23,2 km/h (4 Bft)
08.02.2014 09:42 7,4 C 5,0 C 82 % 991,7 hPa 0,0 l/m 0 min 2 min 0,0 UV-I 44 W/m 25,7 km/h (4 Bft)
08.02.2014 09:44 7,3 C 5,0 C 82 % 991,7 hPa 0,0 l/m 0 min 2 min 0,0 UV-I 39 W/m 25,7 km/h (4 Bft)
08.02.2014 09:46 7,3 C 5,0 C 83 % 991,6 hPa 0,0 l/m 0 min 2 min 0,0 UV-I 35 W/m 20,6 km/h (4 Bft)
08.02.2014 09:48 7,3 C 5,0 C 83 % 991,6 hPa 0,0 l/m 0 min 2 min 0,0 UV-I 26 W/m 18,0 km/h (3 Bft)
08.02.2014 09:50 7,3 C 5,0 C 83 % 991,6 hPa 0,0 l/m 0 min 2 min 0,0 UV-I 26 W/m 23,2 km/h (4 Bft)
08.02.2014 09:52 7,2 C 5,0 C 84 % 991,6 hPa 0,0 l/m 0 min 2 min 0,0 UV-I 23 W/m 23,2 km/h (4 Bft)
08.02.2014 09:54 7,2 C 5,0 C 84 % 991,5 hPa 0,2 l/m 0 min 2 min 0,0 UV-I 21 W/m 23,2 km/h (4 Bft)
08.02.2014 09:56 7,2 C 4,4 C 84 % 991,5 hPa 0,0 l/m 0 min 2 min 0,0 UV-I 21 W/m 28,3 km/h (4 Bft)
08.02.2014 09:58 7,2 C 4,4 C 84 % 991,5 hPa 0,0 l/m 0 min 2 min 0,0 UV-I 19 W/m 30,9 km/h (5 Bft)
08.02.2014 10:00 7,1 C 4,4 C 85 % 991,5 hPa 0,0 l/m 0 min 2 min 0,0 UV-I 18 W/m 23,2 km/h (4 Bft)
08.02.2014 10:02 7,1 C 4,4 C 85 % 991,5 hPa 0,0 l/m 0 min 2 min 0,0 UV-I 19 W/m 23,2 km/h (4 Bft)
08.02.2014 10:04 7,1 C 4,4 C 85 % 991,5 hPa 0,0 l/m 0 min 2 min 0,0 UV-I 19 W/m 20,6 km/h (4 Bft)
08.02.2014 10:06 7,1 C 4,4 C 86 % 991,4 hPa 0,0 l/m 0 min 2 min 0,0 UV-I 18 W/m 20,6 km/h (4 Bft)
08.02.2014 10:08 7,0 C 4,4 C 86 % 991,3 hPa 0,2 l/m 0 min 2 min 0,0 UV-I 18 W/m 10,3 km/h (2 Bft)
08.02.2014 10:10 7,0 C 4,4 C 86 % 991,4 hPa 0,0 l/m 0 min 2 min 0,0 UV-I 16 W/m 15,4 km/h (3 Bft)
08.02.2014 10:12 6,9 C 4,4 C 86 % 991,5 hPa 0,0 l/m 0 min 2 min 0,0 UV-I 19 W/m 25,7 km/h (4 Bft)
08.02.2014 10:14 6,9 C 4,4 C 86 % 991,4 hPa 0,0 l/m 0 min 0 min 0,0 UV-I 28 W/m 10,3 km/h (2 Bft)
08.02.2014 10:16 6,9 C 4,4 C 87 % 991,4 hPa 0,0 l/m 0 min 2 min 0,0 UV-I 37 W/m 12,9 km/h (3 Bft)
08.02.2014 10:18 6,8 C 4,4 C 87 % 991,5 hPa 0,0 l/m 0 min 0 min 0,0 UV-I 28 W/m 20,6 km/h (4 Bft)
08.02.2014 10:20 6,8 C 4,4 C 87 % 991,4 hPa 0,0 l/m 0 min 0 min 0,0 UV-I 25 W/m 15,4 km/h (3 Bft)
08.02.2014 10:22 6,8 C 4,4 C 87 % 991,5 hPa 0,0 l/m 0 min 0 min 0,0 UV-I 30 W/m 25,7 km/h (4 Bft)
08.02.2014 10:24 6,8 C 4,4 C 87 % 991,4 hPa 0,0 l/m 0 min 2 min 0,0 UV-I 40 W/m 20,6 km/h (4 Bft)
08.02.2014 10:26 6,8 C 4,4 C 87 % 991,3 hPa 0,0 l/m 0 min 2 min 0,0 UV-I 40 W/m 20,6 km/h (4 Bft)
08.02.2014 10:28 6,8 C 4,4 C 87 % 991,3 hPa 0,0 l/m 0 min 2 min 0,0 UV-I 39 W/m 12,9 km/h (3 Bft)
08.02.2014 10:30 6,8 C 4,4 C 87 % 991,2 hPa 0,0 l/m 0 min 2 min 0,0 UV-I 46 W/m 25,7 km/h (4 Bft)
08.02.2014 10:32 6,8 C 5,0 C 87 % 991,2 hPa 0,0 l/m 0 min 2 min 0,0 UV-I 49 W/m 20,6 km/h (4 Bft)
08.02.2014 10:34 6,9 C 5,0 C 87 % 991,1 hPa 0,0 l/m 0 min 2 min 0,0 UV-I 54 W/m 10,3 km/h (2 Bft)
08.02.2014 10:36 6,9 C 5,0 C 87 % 991,1 hPa 0,0 l/m 0 min 2 min 0,0 UV-I 58 W/m 23,2 km/h (4 Bft)
08.02.2014 10:38 6,9 C 5,0 C 87 % 991,1 hPa 0,0 l/m 0 min 2 min 0,0 UV-I 60 W/m 20,6 km/h (4 Bft)
08.02.2014 10:40 6,9 C 5,0 C 87 % 991,1 hPa 0,0 l/m 0 min 2 min 0,0 UV-I 58 W/m 12,9 km/h (3 Bft)
08.02.2014 10:42 6,9 C 5,0 C 87 % 991,1 hPa 0,2 l/m 0 min 2 min 0,0 UV-I 60 W/m 7,7 km/h (2 Bft)
08.02.2014 10:44 7,0 C 5,0 C 88 % 991,2 hPa 0,0 l/m 0 min 2 min 0,0 UV-I 62 W/m 23,2 km/h (4 Bft)
08.02.2014 10:46 7,0 C 5,0 C 88 % 991,1 hPa 0,0 l/m 0 min 2 min 0,0 UV-I 70 W/m 18,0 km/h (3 Bft)
08.02.2014 10:48 7,1 C 5,0 C 88 % 991,1 hPa 0,0 l/m 0 min 2 min 0,0 UV-I 67 W/m 18,0 km/h (3 Bft)
08.02.2014 10:50 7,1 C 5,0 C 88 % 991,1 hPa 0,0 l/m 0 min 2 min 0,0 UV-I 62 W/m 12,9 km/h (3 Bft)
08.02.2014 10:52 7,1 C 5,0 C 88 % 991,1 hPa 0,0 l/m 0 min 2 min 0,0 UV-I 60 W/m 12,9 km/h (3 Bft)
08.02.2014 10:54 7,2 C 5,0 C 87 % 991,0 hPa 0,0 l/m 0 min 2 min 0,0 UV-I 58 W/m 23,2 km/h (4 Bft)
08.02.2014 10:56 7,2 C 5,0 C 87 % 991,0 hPa 0,0 l/m 0 min 2 min 0,0 UV-I 62 W/m 15,4 km/h (3 Bft)
08.02.2014 10:58 7,3 C 5,0 C 87 % 990,9 hPa 0,0 l/m 0 min 2 min 0,0 UV-I 60 W/m 25,7 km/h (4 Bft)
08.02.2014 11:00 7,3 C 5,0 C 87 % 990,9 hPa 0,0 l/m 0 min 2 min 0,0 UV-I 56 W/m 23,2 km/h (4 Bft)
08.02.2014 11:02 7,4 C 5,0 C 87 % 990,9 hPa 0,0 l/m 0 min 2 min 0,0 UV-I 54 W/m 18,0 km/h (3 Bft)
08.02.2014 11:04 7,4 C 5,0 C 87 % 990,9 hPa 0,0 l/m 0 min 2 min 0,0 UV-I 54 W/m 25,7 km/h (4 Bft)
08.02.2014 11:06 7,4 C 5,0 C 86 % 990,9 hPa 0,0 l/m 0 min 2 min 0,0 UV-I 54 W/m 18,0 km/h (3 Bft)
08.02.2014 11:08 7,5 C 5,0 C 86 % 990,9 hPa 0,0 l/m 0 min 2 min 0,0 UV-I 47 W/m 12,9 km/h (3 Bft)
08.02.2014 11:10 7,5 C 5,0 C 86 % 991,1 hPa 0,0 l/m 0 min 2 min 0,0 UV-I 56 W/m 30,9 km/h (5 Bft)
08.02.2014 11:12 7,6 C 5,6 C 86 % 990,8 hPa 0,0 l/m 0 min 2 min 0,0 UV-I 60 W/m 18,0 km/h (3 Bft)
08.02.2014 11:14 7,6 C 5,6 C 86 % 990,8 hPa 0,0 l/m 0 min 2 min 0,0 UV-I 65 W/m 18,0 km/h (3 Bft)
08.02.2014 11:16 7,7 C 5,6 C 86 % 990,8 hPa 0,0 l/m 0 min 2 min 0,0 UV-I 58 W/m 18,0 km/h (3 Bft)
08.02.2014 11:18 7,7 C 5,6 C 86 % 990,7 hPa 0,0 l/m 0 min 2 min 0,0 UV-I 65 W/m 15,4 km/h (3 Bft)
08.02.2014 11:20 7,7 C 5,6 C 86 % 990,7 hPa 0,2 l/m 0 min 2 min 0,0 UV-I 67 W/m 18,0 km/h (3 Bft)
08.02.2014 11:22 7,7 C 5,6 C 86 % 990,7 hPa 0,0 l/m 0 min 2 min 0,0 UV-I 60 W/m 33,5 km/h (5 Bft)
08.02.2014 11:24 7,8 C 5,6 C 85 % 990,7 hPa 0,0 l/m 0 min 2 min 0,0 UV-I 54 W/m 28,3 km/h (4 Bft)
08.02.2014 11:26 7,8 C 5,0 C 85 % 990,6 hPa 0,0 l/m 0 min 2 min 0,0 UV-I 47 W/m 36,0 km/h (5 Bft)
08.02.2014 11:28 7,8 C 5,6 C 85 % 990,5 hPa 0,0 l/m 0 min 2 min 0,0 UV-I 51 W/m 25,7 km/h (4 Bft)
08.02.2014 11:30 7,9 C 5,6 C 85 % 990,3 hPa 0,0 l/m 0 min 2 min 0,0 UV-I 51 W/m 15,4 km/h (3 Bft)
08.02.2014 11:32 7,9 C 5,6 C 84 % 990,4 hPa 0,0 l/m 0 min 2 min 0,0 UV-I 54 W/m 10,3 km/h (2 Bft)
08.02.2014 11:34 7,9 C 5,6 C 85 % 990,3 hPa 0,0 l/m 0 min 2 min 0,0 UV-I 62 W/m 23,2 km/h (4 Bft)
08.02.2014 11:36 7,9 C 5,6 C 84 % 990,4 hPa 0,0 l/m 0 min 2 min 0,0 UV-I 60 W/m 15,4 km/h (3 Bft)
08.02.2014 11:38 8,0 C 5,6 C 84 % 990,3 hPa 0,0 l/m 0 min 2 min 0,0 UV-I 58 W/m 18,0 km/h (3 Bft)
08.02.2014 11:40 7,9 C 5,6 C 84 % 990,3 hPa 0,0 l/m 0 min 2 min 0,0 UV-I 62 W/m 33,5 km/h (5 Bft)
08.02.2014 11:42 8,0 C 5,6 C 84 % 990,2 hPa 0,0 l/m 0 min 2 min 0,0 UV-I 63 W/m 18,0 km/h (3 Bft)
08.02.2014 11:44 8,0 C 5,6 C 84 % 990,2 hPa 0,0 l/m 0 min 2 min 0,0 UV-I 63 W/m 18,0 km/h (3 Bft)
08.02.2014 11:46 8,1 C 5,6 C 84 % 990,2 hPa 0,0 l/m 0 min 2 min 0,0 UV-I 53 W/m 15,4 km/h (3 Bft)
08.02.2014 11:48 8,1 C 5,6 C 84 % 990,3 hPa 0,0 l/m 0 min 2 min 0,0 UV-I 44 W/m 20,6 km/h (4 Bft)
08.02.2014 11:50 8,1 C 5,6 C 84 % 990,1 hPa 0,0 l/m 0 min 2 min 0,0 UV-I 40 W/m 12,9 km/h (3 Bft)
08.02.2014 11:52 8,1 C 5,6 C 84 % 990,2 hPa 0,0 l/m 0 min 2 min 0,0 UV-I 42 W/m 15,4 km/h (3 Bft)
08.02.2014 11:54 8,1 C 5,6 C 84 % 990,1 hPa 0,2 l/m 0 min 2 min 0,0 UV-I 40 W/m 15,4 km/h (3 Bft)
08.02.2014 11:56 8,1 C 5,6 C 84 % 990,2 hPa 0,0 l/m 0 min 2 min 0,0 UV-I 40 W/m 25,7 km/h (4 Bft)
08.02.2014 11:58 8,1 C 5,6 C 84 % 990,1 hPa 0,0 l/m 0 min 2 min 0,0 UV-I 44 W/m 20,6 km/h (4 Bft)
08.02.2014 12:00 8,1 C 5,6 C 84 % 990,1 hPa 0,0 l/m 0 min 2 min 0,0 UV-I 40 W/m 20,6 km/h (4 Bft)
08.02.2014 12:02 8,1 C 5,6 C 84 % 990,1 hPa 0,0 l/m 0 min 2 min 0,0 UV-I 35 W/m 18,0 km/h (3 Bft)
08.02.2014 12:04 8,1 C 5,6 C 84 % 990,1 hPa 0,0 l/m 0 min 2 min 0,0 UV-I 39 W/m 18,0 km/h (3 Bft)
08.02.2014 12:06 8,1 C 5,6 C 84 % 990,1 hPa 0,0 l/m 0 min 2 min 0,0 UV-I 46 W/m 18,0 km/h (3 Bft)
08.02.2014 12:08 8,2 C 5,6 C 84 % 990,1 hPa 0,0 l/m 0 min 2 min 0,0 UV-I 53 W/m 33,5 km/h (5 Bft)
08.02.2014 12:10 8,2 C 5,6 C 84 % 990,0 hPa 0,0 l/m 0 min 2 min 0,0 UV-I 47 W/m 25,7 km/h (4 Bft)
08.02.2014 12:12 8,2 C 5,6 C 88 % 990,1 hPa 0,0 l/m 0 min 2 min 0,0 UV-I 46 W/m 20,6 km/h (4 Bft)
08.02.2014 12:14 8,2 C 5,6 C 88 % 990,0 hPa 0,0 l/m 0 min 2 min 0,0 UV-I 44 W/m 18,0 km/h (3 Bft)
08.02.2014 12:16 8,2 C 5,6 C 84 % 990,0 hPa 0,0 l/m 0 min 2 min 0,0 UV-I 37 W/m 12,9 km/h (3 Bft)
08.02.2014 12:18 8,2 C 5,6 C 84 % 989,9 hPa 0,0 l/m 0 min 2 min 0,0 UV-I 35 W/m 23,2 km/h (4 Bft)
08.02.2014 12:20 8,2 C 5,6 C 84 % 989,9 hPa 0,0 l/m 0 min 2 min 0,0 UV-I 39 W/m 36,0 km/h (5 Bft)
08.02.2014 12:22 8,2 C 5,6 C 84 % 989,9 hPa 0,0 l/m 0 min 2 min 0,0 UV-I 44 W/m 15,4 km/h (3 Bft)
08.02.2014 12:24 8,2 C 5,6 C 84 % 989,7 hPa 0,0 l/m 0 min 2 min 0,0 UV-I 40 W/m 36,0 km/h (5 Bft)
08.02.2014 12:26 8,2 C 5,6 C 84 % 989,6 hPa 0,0 l/m 0 min 2 min 0,0 UV-I 47 W/m 15,4 km/h (3 Bft)
08.02.2014 12:28 8,2 C 5,6 C 84 % 989,6 hPa 0,0 l/m 0 min 0 min 0,0 UV-I 51 W/m 36,0 km/h (5 Bft)
08.02.2014 12:30 8,2 C 5,6 C 84 % 989,7 hPa 0,0 l/m 0 min 2 min 0,0 UV-I 56 W/m 23,2 km/h (4 Bft)
08.02.2014 12:32 8,2 C 5,6 C 84 % 989,6 hPa 0,0 l/m 0 min 2 min 0,0 UV-I 54 W/m 12,9 km/h (3 Bft)
08.02.2014 12:34 8,2 C 6,1 C 84 % 989,5 hPa 0,0 l/m 0 min 0 min 0,0 UV-I 54 W/m 20,6 km/h (4 Bft)
08.02.2014 12:36 8,3 C 6,1 C 84 % 989,6 hPa 0,0 l/m 0 min 0 min 0,0 UV-I 58 W/m 23,2 km/h (4 Bft)
08.02.2014 12:38 8,3 C 6,1 C 83 % 989,4 hPa 0,0 l/m 0 min 2 min 0,0 UV-I 58 W/m 30,9 km/h (5 Bft)
08.02.2014 12:40 8,3 C 6,1 C 83 % 989,4 hPa 0,0 l/m 0 min 0 min 0,0 UV-I 65 W/m 20,6 km/h (4 Bft)
08.02.2014 12:42 8,4 C 6,1 C 83 % 989,5 hPa 0,0 l/m 0 min 0 min 0,0 UV-I 56 W/m 15,4 km/h (3 Bft)
08.02.2014 12:44 8,4 C 6,1 C 83 % 989,5 hPa 0,0 l/m 0 min 0 min 0,0 UV-I 51 W/m 15,4 km/h (3 Bft)
08.02.2014 12:46 8,4 C 6,1 C 83 % 989,5 hPa 0,0 l/m 0 min 0 min 0,0 UV-I 58 W/m 25,7 km/h (4 Bft)
08.02.2014 12:48 8,4 C 6,7 C 82 % 989,4 hPa 0,0 l/m 0 min 0 min 0,0 UV-I 58 W/m 23,2 km/h (4 Bft)
08.02.2014 12:50 8,5 C 6,7 C 82 % 989,4 hPa 0,0 l/m 0 min 0 min 0,0 UV-I 53 W/m 33,5 km/h (5 Bft)
08.02.2014 12:52 8,6 C 6,7 C 82 % 989,3 hPa 0,0 l/m 0 min 0 min 0,0 UV-I 53 W/m 25,7 km/h (4 Bft)
08.02.2014 12:54 8,6 C 6,7 C 82 % 989,3 hPa 0,0 l/m 0 min 0 min 0,0 UV-I 49 W/m 12,9 km/h (3 Bft)
08.02.2014 12:56 8,6 C 6,7 C 82 % 989,3 hPa 0,0 l/m 0 min 0 min 0,0 UV-I 70 W/m 23,2 km/h (4 Bft)
08.02.2014 12:58 8,7 C 6,7 C 82 % 989,4 hPa 0,0 l/m 0 min 0 min 0,0 UV-I 86 W/m 20,6 km/h (4 Bft)
08.02.2014 13:00 8,8 C 6,7 C 81 % 989,2 hPa 0,0 l/m 0 min 0 min 0,0 UV-I 90 W/m 20,6 km/h (4 Bft)
08.02.2014 13:02 8,9 C 6,7 C 80 % 989,1 hPa 0,0 l/m 0 min 0 min 0,0 UV-I 97 W/m 23,2 km/h (4 Bft)
08.02.2014 13:04 9,0 C 6,7 C 80 % 989,2 hPa 0,0 l/m 0 min 0 min 0,0 UV-I 88 W/m 18,0 km/h (3 Bft)
08.02.2014 13:06 9,1 C 7,2 C 79 % 989,1 hPa 0,0 l/m 0 min 0 min 0,0 UV-I 104 W/m 15,4 km/h (3 Bft)
08.02.2014 13:08 9,1 C 7,2 C 79 % 989,3 hPa 0,0 l/m 0 min 0 min 0,0 UV-I 67 W/m 20,6 km/h (4 Bft)
08.02.2014 13:10 9,2 C 7,2 C 79 % 989,3 hPa 0,0 l/m 0 min 0 min 0,0 UV-I 56 W/m 12,9 km/h (3 Bft)
08.02.2014 13:12 9,2 C 7,2 C 79 % 989,3 hPa 0,0 l/m 0 min 0 min 0,0 UV-I 42 W/m 18,0 km/h (3 Bft)
08.02.2014 13:14 9,2 C 6,7 C 79 % 989,4 hPa 0,0 l/m 0 min 0 min 0,0 UV-I 35 W/m 38,6 km/h (5 Bft)
08.02.2014 13:16 9,2 C 6,7 C 79 % 989,3 hPa 0,0 l/m 0 min 0 min 0,0 UV-I 39 W/m 30,9 km/h (5 Bft)
08.02.2014 13:18 9,2 C 6,7 C 78 % 989,4 hPa 0,0 l/m 0 min 0 min 0,0 UV-I 30 W/m 25,7 km/h (4 Bft)
08.02.2014 13:20 9,2 C 6,7 C 78 % 989,3 hPa 0,0 l/m 0 min 2 min 0,0 UV-I 28 W/m 25,7 km/h (4 Bft)
08.02.2014 13:22 9,2 C 6,7 C 78 % 989,4 hPa 0,0 l/m 0 min 2 min 0,0 UV-I 28 W/m 15,4 km/h (3 Bft)
08.02.2014 13:24 9,2 C 6,7 C 78 % 989,2 hPa 0,0 l/m 0 min 2 min 0,0 UV-I 25 W/m 28,3 km/h (4 Bft)
08.02.2014 13:26 9,2 C 6,7 C 78 % 989,1 hPa 0,0 l/m 0 min 2 min 0,0 UV-I 25 W/m 12,9 km/h (3 Bft)
08.02.2014 13:28 9,2 C 6,7 C 78 % 989,2 hPa 0,0 l/m 0 min 2 min 0,0 UV-I 23 W/m 18,0 km/h (3 Bft)
08.02.2014 13:30 9,2 C 6,7 C 78 % 989,2 hPa 0,0 l/m 0 min 2 min 0,0 UV-I 25 W/m 30,9 km/h (5 Bft)
08.02.2014 13:32 9,2 C 6,7 C 79 % 989,1 hPa 0,0 l/m 0 min 2 min 0,0 UV-I 33 W/m 15,4 km/h (3 Bft)
08.02.2014 13:34 9,2 C 6,7 C 79 % 989,1 hPa 0,0 l/m 0 min 2 min 0,0 UV-I 37 W/m 23,2 km/h (4 Bft)
08.02.2014 13:36 9,1 C 6,1 C 79 % 989,0 hPa 0,0 l/m 0 min 2 min 0,0 UV-I 39 W/m 15,4 km/h (3 Bft)
08.02.2014 13:38 9,1 C 6,1 C 80 % 989,0 hPa 0,2 l/m 0 min 2 min 0,0 UV-I 37 W/m 7,7 km/h (2 Bft)
08.02.2014 13:40 9,1 C 6,1 C 80 % 989,0 hPa 0,0 l/m 0 min 2 min 0,0 UV-I 35 W/m 15,4 km/h (3 Bft)
08.02.2014 13:42 9,1 C 6,1 C 80 % 988,9 hPa 0,0 l/m 0 min 2 min 0,0 UV-I 39 W/m 20,6 km/h (4 Bft)
08.02.2014 13:44 9,0 C 6,1 C 81 % 989,0 hPa 0,0 l/m 0 min 2 min 0,0 UV-I 40 W/m 28,3 km/h (4 Bft)
08.02.2014 13:46 8,9 C 6,1 C 81 % 989,0 hPa 0,0 l/m 0 min 2 min 0,0 UV-I 39 W/m 18,0 km/h (3 Bft)
08.02.2014 13:48 8,9 C 6,1 C 81 % 988,9 hPa 0,0 l/m 0 min 2 min 0,0 UV-I 42 W/m 12,9 km/h (3 Bft)
08.02.2014 13:50 8,9 C 6,1 C 81 % 988,8 hPa 0,0 l/m 0 min 0 min 0,0 UV-I 44 W/m 12,9 km/h (3 Bft)
08.02.2014 13:52 8,8 C 6,1 C 81 % 988,8 hPa 0,0 l/m 0 min 0 min 0,0 UV-I 44 W/m 12,9 km/h (3 Bft)
08.02.2014 13:54 8,8 C 6,1 C 81 % 988,8 hPa 0,0 l/m 0 min 2 min 0,0 UV-I 60 W/m 20,6 km/h (4 Bft)
08.02.2014 13:56 8,8 C 6,1 C 81 % 988,8 hPa 0,0 l/m 0 min 2 min 0,0 UV-I 63 W/m 30,9 km/h (5 Bft)
08.02.2014 13:58 8,8 C 6,1 C 81 % 988,8 hPa 0,0 l/m 0 min 2 min 0,0 UV-I 47 W/m 20,6 km/h (4 Bft)
08.02.2014 14:00 8,9 C 6,1 C 81 % 988,8 hPa 0,0 l/m 0 min 0 min 0,0 UV-I 47 W/m 15,4 km/h (3 Bft)
08.02.2014 14:02 8,9 C 6,7 C 81 % 988,9 hPa 0,0 l/m 0 min 0 min 0,0 UV-I 46 W/m 23,2 km/h (4 Bft)
08.02.2014 14:04 8,9 C 6,7 C 80 % 988,7 hPa 0,0 l/m 0 min 0 min 0,0 UV-I 46 W/m 18,0 km/h (3 Bft)
08.02.2014 14:06 8,9 C 6,7 C 80 % 988,7 hPa 0,0 l/m 0 min 0 min 0,0 UV-I 46 W/m 12,9 km/h (3 Bft)
08.02.2014 14:08 8,9 C 6,7 C 80 % 988,7 hPa 0,0 l/m 0 min 0 min 0,0 UV-I 44 W/m 28,3 km/h (4 Bft)
08.02.2014 14:10 8,9 C 6,7 C 80 % 988,7 hPa 0,0 l/m 0 min 0 min 0,0 UV-I 42 W/m 28,3 km/h (4 Bft)
08.02.2014 14:12 8,9 C 6,7 C 79 % 988,6 hPa 0,0 l/m 0 min 0 min 0,0 UV-I 42 W/m 18,0 km/h (3 Bft)
08.02.2014 14:14 9,0 C 6,7 C 79 % 988,6 hPa 0,0 l/m 0 min 0 min 0,0 UV-I 60 W/m 18,0 km/h (3 Bft)
08.02.2014 14:16 9,0 C 6,7 C 79 % 988,6 hPa 0,0 l/m 0 min 0 min 0,0 UV-I 67 W/m 25,7 km/h (4 Bft)
08.02.2014 14:18 9,0 C 6,7 C 79 % 988,6 hPa 0,0 l/m 0 min 0 min 0,0 UV-I 58 W/m 23,2 km/h (4 Bft)
08.02.2014 14:20 9,0 C 6,7 C 79 % 988,6 hPa 0,0 l/m 0 min 0 min 0,0 UV-I 56 W/m 12,9 km/h (3 Bft)
08.02.2014 14:22 9,1 C 7,2 C 79 % 988,7 hPa 0,0 l/m 0 min 0 min 0,0 UV-I 56 W/m 28,3 km/h (4 Bft)
08.02.2014 14:24 9,1 C 7,2 C 78 % 988,7 hPa 0,0 l/m 0 min 0 min 0,0 UV-I 53 W/m 28,3 km/h (4 Bft)
08.02.2014 14:26 9,1 C 7,2 C 78 % 988,5 hPa 0,0 l/m 0 min 0 min 0,0 UV-I 49 W/m 18,0 km/h (3 Bft)
08.02.2014 14:28 9,1 C 7,2 C 78 % 988,5 hPa 0,0 l/m 0 min 0 min 0,0 UV-I 51 W/m 36,0 km/h (5 Bft)
08.02.2014 14:30 9,1 C 7,2 C 78 % 988,4 hPa 0,0 l/m 0 min 0 min 0,0 UV-I 46 W/m 20,6 km/h (4 Bft)
08.02.2014 14:32 9,1 C 7,2 C 78 % 988,4 hPa 0,0 l/m 0 min 0 min 0,0 UV-I 49 W/m 15,4 km/h (3 Bft)
08.02.2014 14:34 9,1 C 7,2 C 79 % 988,5 hPa 0,0 l/m 0 min 0 min 0,0 UV-I 51 W/m 18,0 km/h (3 Bft)
08.02.2014 14:36 9,1 C 6,7 C 79 % 988,5 hPa 0,0 l/m 0 min 0 min 0,0 UV-I 47 W/m 18,0 km/h (3 Bft)
08.02.2014 14:38 9,1 C 6,7 C 79 % 988,4 hPa 0,0 l/m 0 min 2 min 0,0 UV-I 46 W/m 18,0 km/h (3 Bft)
08.02.2014 14:40 9,1 C 6,7 C 79 % 988,5 hPa 0,0 l/m 0 min 2 min 0,0 UV-I 40 W/m 28,3 km/h (4 Bft)
08.02.2014 14:42 9,0 C 6,7 C 79 % 988,5 hPa 0,0 l/m 0 min 2 min 0,0 UV-I 40 W/m 28,3 km/h (4 Bft)
08.02.2014 14:44 9,0 C 6,7 C 79 % 988,5 hPa 0,0 l/m 0 min 2 min 0,0 UV-I 44 W/m 23,2 km/h (4 Bft)
08.02.2014 14:46 9,0 C 6,7 C 79 % 988,6 hPa 0,0 l/m 0 min 2 min 0,0 UV-I 46 W/m 25,7 km/h (4 Bft)
08.02.2014 14:48 8,9 C 6,1 C 80 % 988,5 hPa 0,0 l/m 0 min 2 min 0,0 UV-I 40 W/m 28,3 km/h (4 Bft)
08.02.2014 14:50 8,9 C 6,1 C 80 % 988,5 hPa 0,0 l/m 0 min 2 min 0,0 UV-I 33 W/m 20,6 km/h (4 Bft)
08.02.2014 14:52 8,9 C 6,1 C 80 % 988,5 hPa 0,0 l/m 0 min 2 min 0,0 UV-I 35 W/m 15,4 km/h (3 Bft)
08.02.2014 14:54 8,8 C 6,1 C 81 % 988,4 hPa 0,0 l/m 0 min 2 min 0,0 UV-I 32 W/m 10,3 km/h (2 Bft)
08.02.2014 14:56 8,8 C 6,1 C 81 % 988,4 hPa 0,0 l/m 0 min 2 min 0,0 UV-I 30 W/m 20,6 km/h (4 Bft)
08.02.2014 14:58 8,8 C 6,1 C 81 % 988,5 hPa 0,0 l/m 0 min 0 min 0,0 UV-I 28 W/m 18,0 km/h (3 Bft)
08.02.2014 15:00 8,7 C 6,1 C 81 % 988,5 hPa 0,0 l/m 0 min 0 min 0,0 UV-I 23 W/m 15,4 km/h (3 Bft)
08.02.2014 15:02 8,7 C 6,1 C 81 % 988,5 hPa 0,0 l/m 0 min 0 min 0,0 UV-I 21 W/m 23,2 km/h (4 Bft)
08.02.2014 15:04 8,7 C 6,7 C 81 % 988,4 hPa 0,0 l/m 0 min 0 min 0,0 UV-I 25 W/m 15,4 km/h (3 Bft)
08.02.2014 15:06 8,7 C 6,7 C 81 % 988,4 hPa 0,0 l/m 0 min 0 min 0,0 UV-I 32 W/m 25,7 km/h (4 Bft)
08.02.2014 15:08 8,7 C 6,7 C 81 % 988,4 hPa 0,0 l/m 0 min 0 min 0,0 UV-I 33 W/m 18,0 km/h (3 Bft)
08.02.2014 15:10 8,7 C 6,7 C 81 % 988,4 hPa 0,0 l/m 0 min 2 min 0,0 UV-I 26 W/m 28,3 km/h (4 Bft)
08.02.2014 15:12 8,7 C 6,1 C 81 % 988,5 hPa 0,0 l/m 0 min 2 min 0,0 UV-I 28 W/m 18,0 km/h (3 Bft)
08.02.2014 15:14 8,7 C 6,1 C 81 % 988,6 hPa 0,0 l/m 0 min 2 min 0,0 UV-I 33 W/m 15,4 km/h (3 Bft)
08.02.2014 15:16 8,7 C 6,1 C 81 % 988,5 hPa 0,0 l/m 0 min 2 min 0,0 UV-I 35 W/m 5,1 km/h (1 Bft)
08.02.2014 15:18 8,7 C 6,1 C 81 % 988,5 hPa 0,0 l/m 0 min 2 min 0,0 UV-I 32 W/m 5,1 km/h (1 Bft)
08.02.2014 15:20 8,7 C 6,1 C 82 % 988,5 hPa 0,0 l/m 0 min 2 min 0,0 UV-I 30 W/m 20,6 km/h (4 Bft)
08.02.2014 15:22 8,7 C 5,6 C 82 % 988,4 hPa 0,0 l/m 0 min 2 min 0,0 UV-I 28 W/m 25,7 km/h (4 Bft)
08.02.2014 15:24 8,7 C 5,6 C 82 % 988,5 hPa 0,0 l/m 0 min 2 min 0,0 UV-I 28 W/m 18,0 km/h (3 Bft)
08.02.2014 15:26 8,6 C 5,6 C 82 % 988,5 hPa 0,0 l/m 0 min 2 min 0,0 UV-I 28 W/m 28,3 km/h (4 Bft)
08.02.2014 15:28 8,6 C 5,6 C 82 % 988,5 hPa 0,0 l/m 0 min 2 min 0,0 UV-I 28 W/m 15,4 km/h (3 Bft)
08.02.2014 15:30 8,6 C 5,6 C 82 % 988,4 hPa 0,0 l/m 0 min 2 min 0,0 UV-I 25 W/m 18,0 km/h (3 Bft)
08.02.2014 15:32 8,6 C 5,6 C 82 % 988,5 hPa 0,0 l/m 0 min 2 min 0,0 UV-I 26 W/m 25,7 km/h (4 Bft)
08.02.2014 15:34 8,5 C 5,6 C 83 % 988,5 hPa 0,2 l/m 0 min 2 min 0,0 UV-I 25 W/m 33,5 km/h (5 Bft)
08.02.2014 15:36 8,5 C 5,6 C 83 % 988,6 hPa 0,0 l/m 0 min 2 min 0,0 UV-I 23 W/m 23,2 km/h (4 Bft)
08.02.2014 15:38 8,4 C 5,6 C 83 % 988,5 hPa 0,0 l/m 0 min 2 min 0,0 UV-I 23 W/m 10,3 km/h (2 Bft)
08.02.2014 15:40 8,4 C 5,6 C 83 % 988,5 hPa 0,0 l/m 0 min 2 min 0,0 UV-I 21 W/m 18,0 km/h (3 Bft)
08.02.2014 15:42 8,4 C 5,6 C 83 % 988,6 hPa 0,0 l/m 0 min 2 min 0,0 UV-I 19 W/m 25,7 km/h (4 Bft)
08.02.2014 15:44 8,3 C 5,6 C 83 % 988,5 hPa 0,0 l/m 0 min 2 min 0,0 UV-I 21 W/m 18,0 km/h (3 Bft)
08.02.2014 15:46 8,3 C 5,6 C 84 % 988,5 hPa 0,0 l/m 0 min 2 min 0,0 UV-I 21 W/m 20,6 km/h (4 Bft)
08.02.2014 15:48 8,2 C 5,6 C 84 % 988,6 hPa 0,0 l/m 0 min 2 min 0,0 UV-I 25 W/m 28,3 km/h (4 Bft)
08.02.2014 15:50 8,2 C 5,6 C 84 % 988,6 hPa 0,0 l/m 0 min 2 min 0,0 UV-I 23 W/m 20,6 km/h (4 Bft)
08.02.2014 15:52 8,2 C 5,6 C 84 % 988,6 hPa 0,0 l/m 0 min 2 min 0,0 UV-I 21 W/m 12,9 km/h (3 Bft)
08.02.2014 15:54 8,1 C 5,0 C 85 % 988,6 hPa 0,0 l/m 0 min 2 min 0,0 UV-I 19 W/m 15,4 km/h (3 Bft)
08.02.2014 15:56 8,1 C 5,0 C 85 % 988,5 hPa 0,2 l/m 0 min 2 min 0,0 UV-I 21 W/m 18,0 km/h (3 Bft)
08.02.2014 15:58 8,0 C 5,0 C 85 % 988,5 hPa 0,0 l/m 0 min 2 min 0,0 UV-I 23 W/m 20,6 km/h (4 Bft)
08.02.2014 16:00 7,9 C 5,0 C 85 % 988,5 hPa 0,0 l/m 0 min 2 min 0,0 UV-I 23 W/m 10,3 km/h (2 Bft)
08.02.2014 16:02 7,9 C 5,0 C 86 % 988,4 hPa 0,0 l/m 0 min 2 min 0,0 UV-I 25 W/m 28,3 km/h (4 Bft)
08.02.2014 16:04 7,8 C 5,0 C 86 % 988,4 hPa 0,0 l/m 0 min 2 min 0,0 UV-I 25 W/m 15,4 km/h (3 Bft)
08.02.2014 16:06 7,8 C 5,0 C 86 % 988,5 hPa 0,0 l/m 0 min 2 min 0,0 UV-I 25 W/m 10,3 km/h (2 Bft)
08.02.2014 16:08 7,7 C 5,0 C 86 % 988,4 hPa 0,0 l/m 0 min 2 min 0,0 UV-I 25 W/m 18,0 km/h (3 Bft)
08.02.2014 16:10 7,7 C 5,0 C 86 % 988,3 hPa 0,0 l/m 0 min 2 min 0,0 UV-I 25 W/m 10,3 km/h (2 Bft)
08.02.2014 16:12 7,7 C 5,0 C 86 % 988,1 hPa 0,0 l/m 0 min 2 min 0,0 UV-I 25 W/m 18,0 km/h (3 Bft)
08.02.2014 16:14 7,7 C 5,0 C 86 % 988,0 hPa 0,0 l/m 0 min 0 min 0,0 UV-I 25 W/m 30,9 km/h (5 Bft)
08.02.2014 16:16 7,6 C 5,0 C 86 % 987,9 hPa 0,0 l/m 0 min 2 min 0,0 UV-I 25 W/m 20,6 km/h (4 Bft)
08.02.2014 16:18 7,6 C 5,0 C 87 % 987,9 hPa 0,0 l/m 0 min 2 min 0,0 UV-I 25 W/m 25,7 km/h (4 Bft)
08.02.2014 16:20 7,5 C 5,0 C 87 % 988,0 hPa 0,0 l/m 0 min 0 min 0,0 UV-I 25 W/m 18,0 km/h (3 Bft)
08.02.2014 16:22 7,5 C 5,0 C 87 % 988,1 hPa 0,0 l/m 0 min 0 min 0,0 UV-I 23 W/m 25,7 km/h (4 Bft)
08.02.2014 16:24 7,4 C 5,0 C 86 % 987,9 hPa 0,0 l/m 0 min 0 min 0,0 UV-I 21 W/m 33,5 km/h (5 Bft)
08.02.2014 16:26 7,4 C 5,0 C 86 % 987,8 hPa 0,0 l/m 0 min 0 min 0,0 UV-I 21 W/m 12,9 km/h (3 Bft)
08.02.2014 16:28 7,4 C 5,0 C 86 % 987,8 hPa 0,0 l/m 0 min 0 min 0,0 UV-I 21 W/m 18,0 km/h (3 Bft)
08.02.2014 16:30 7,4 C 5,0 C 86 % 987,7 hPa 0,0 l/m 0 min 0 min 0,0 UV-I 21 W/m 41,2 km/h (6 Bft)
08.02.2014 16:32 7,4 C 5,0 C 86 % 987,8 hPa 0,0 l/m 0 min 2 min 0,0 UV-I 21 W/m 28,3 km/h (4 Bft)
08.02.2014 16:34 7,4 C 5,0 C 86 % 987,9 hPa 0,0 l/m 0 min 0 min 0,0 UV-I 23 W/m 28,3 km/h (4 Bft)
08.02.2014 16:36 7,4 C 5,0 C 86 % 988,0 hPa 0,0 l/m 0 min 0 min 0,0 UV-I 19 W/m 20,6 km/h (4 Bft)
08.02.2014 16:38 7,3 C 5,0 C 85 % 988,2 hPa 0,0 l/m 0 min 0 min 0,0 UV-I 16 W/m 43,8 km/h (6 Bft)
08.02.2014 16:40 7,4 C 5,0 C 85 % 988,2 hPa 0,0 l/m 0 min 0 min 0,0 UV-I 14 W/m 23,2 km/h (4 Bft)
08.02.2014 16:42 7,4 C 5,0 C 85 % 988,1 hPa 0,0 l/m 0 min 0 min 0,0 UV-I 14 W/m 25,7 km/h (4 Bft)
08.02.2014 16:44 7,4 C 5,0 C 85 % 988,1 hPa 0,0 l/m 0 min 0 min 0,0 UV-I 14 W/m 12,9 km/h (3 Bft)
08.02.2014 16:46 7,4 C 5,0 C 85 % 988,1 hPa 0,0 l/m 0 min 0 min 0,0 UV-I 12 W/m 25,7 km/h (4 Bft)
08.02.2014 16:48 7,4 C 5,0 C 85 % 988,1 hPa 0,0 l/m 0 min 0 min 0,0 UV-I 12 W/m 23,2 km/h (4 Bft)
08.02.2014 16:50 7,4 C 5,0 C 84 % 988,1 hPa 0,0 l/m 0 min 0 min 0,0 UV-I 12 W/m 20,6 km/h (4 Bft)
08.02.2014 16:52 7,4 C 5,6 C 84 % 988,2 hPa 0,0 l/m 0 min 0 min 0,0 UV-I 12 W/m 23,2 km/h (4 Bft)
08.02.2014 16:54 7,4 C 5,6 C 84 % 988,2 hPa 0,0 l/m 0 min 0 min 0,0 UV-I 11 W/m 23,2 km/h (4 Bft)
08.02.2014 16:56 7,4 C 5,6 C 84 % 988,5 hPa 0,0 l/m 0 min 0 min 0,0 UV-I 9 W/m 38,6 km/h (5 Bft)
08.02.2014 16:58 7,4 C 5,6 C 84 % 988,4 hPa 0,0 l/m 0 min 0 min 0,0 UV-I 9 W/m 23,2 km/h (4 Bft)
08.02.2014 17:00 7,5 C 5,6 C 84 % 988,4 hPa 0,0 l/m 0 min 0 min 0,0 UV-I 9 W/m 30,9 km/h (5 Bft)
08.02.2014 17:02 7,5 C 5,6 C 84 % 988,3 hPa 0,0 l/m 0 min 0 min 0,0 UV-I 11 W/m 28,3 km/h (4 Bft)
08.02.2014 17:04 7,5 C 5,6 C 84 % 988,3 hPa 0,0 l/m 0 min 0 min 0,0 UV-I 12 W/m 15,4 km/h (3 Bft)
08.02.2014 17:06 7,5 C 5,6 C 83 % 988,2 hPa 0,0 l/m 0 min 0 min 0,0 UV-I 11 W/m 12,9 km/h (3 Bft)
08.02.2014 17:08 7,5 C 5,6 C 83 % 988,2 hPa 0,0 l/m 0 min 0 min 0,0 UV-I 9 W/m 25,7 km/h (4 Bft)
08.02.2014 17:10 7,5 C 5,6 C 83 % 988,1 hPa 0,0 l/m 0 min 0 min 0,0 UV-I 9 W/m 28,3 km/h (4 Bft)
08.02.2014 17:12 7,5 C 5,6 C 83 % 988,2 hPa 0,0 l/m 0 min 0 min 0,0 UV-I 7 W/m 41,2 km/h (6 Bft)
08.02.2014 17:14 7,5 C 5,6 C 83 % 988,1 hPa 0,0 l/m 0 min 0 min 0,0 UV-I 7 W/m 25,7 km/h (4 Bft)
08.02.2014 17:16 7,5 C 5,6 C 83 % 988,2 hPa 0,0 l/m 0 min 0 min 0,0 UV-I 5 W/m 18,0 km/h (3 Bft)
08.02.2014 17:18 7,5 C 5,6 C 83 % 988,1 hPa 0,0 l/m 0 min 0 min 0,0 UV-I 5 W/m 18,0 km/h (3 Bft)
08.02.2014 17:20 7,5 C 5,6 C 83 % 988,1 hPa 0,0 l/m 0 min 0 min 0,0 UV-I 5 W/m 28,3 km/h (4 Bft)
08.02.2014 17:22 7,5 C 5,0 C 83 % 988,1 hPa 0,0 l/m 0 min 0 min 0,0 UV-I 5 W/m 12,9 km/h (3 Bft)
08.02.2014 17:24 7,5 C 5,6 C 83 % 988,0 hPa 0,0 l/m 0 min 0 min 0,0 UV-I 5 W/m 20,6 km/h (4 Bft)
08.02.2014 17:26 7,5 C 5,6 C 83 % 988,0 hPa 0,0 l/m 0 min 0 min 0,0 UV-I 5 W/m 18,0 km/h (3 Bft)
08.02.2014 17:28 7,5 C 5,6 C 83 % 988,0 hPa 0,0 l/m 0 min 0 min 0,0 UV-I 5 W/m 30,9 km/h (5 Bft)
08.02.2014 17:30 7,5 C 5,0 C 83 % 988,0 hPa 0,0 l/m 0 min 0 min 0,0 UV-I 5 W/m 20,6 km/h (4 Bft)
08.02.2014 17:32 7,5 C 5,6 C 83 % 988,1 hPa 0,0 l/m 0 min 0 min 0,0 UV-I 0 W/m 20,6 km/h (4 Bft)
08.02.2014 17:34 7,5 C 5,6 C 83 % 988,0 hPa 0,0 l/m 0 min 0 min 0,0 UV-I 0 W/m 10,3 km/h (2 Bft)
08.02.2014 17:36 7,5 C 5,0 C 83 % 988,0 hPa 0,0 l/m 0 min 0 min 0,0 UV-I 0 W/m 30,9 km/h (5 Bft)
08.02.2014 17:38 7,4 C 5,0 C 83 % 987,9 hPa 0,0 l/m 0 min 0 min 0,0 UV-I 0 W/m 25,7 km/h (4 Bft)
08.02.2014 17:40 7,4 C 5,0 C 83 % 987,9 hPa 0,0 l/m 0 min 0 min 0,0 UV-I 5 W/m 25,7 km/h (4 Bft)
08.02.2014 17:42 7,4 C 5,0 C 83 % 988,0 hPa 0,0 l/m 0 min 0 min 0,0 UV-I 5 W/m 25,7 km/h (4 Bft)
08.02.2014 17:44 7,4 C 5,0 C 83 % 988,0 hPa 0,0 l/m 0 min 0 min 0,0 UV-I 0 W/m 28,3 km/h (4 Bft)
08.02.2014 17:46 7,4 C 5,0 C 82 % 987,9 hPa 0,0 l/m 0 min 0 min 0,0 UV-I 0 W/m 18,0 km/h (3 Bft)
08.02.2014 17:48 7,4 C 5,0 C 83 % 988,1 hPa 0,0 l/m 0 min 0 min 0,0 UV-I 0 W/m 20,6 km/h (4 Bft)
08.02.2014 17:50 7,4 C 5,0 C 82 % 988,0 hPa 0,0 l/m 0 min 0 min 0,0 UV-I 0 W/m 20,6 km/h (4 Bft)
08.02.2014 17:52 7,4 C 5,0 C 83 % 988,0 hPa 0,0 l/m 0 min 0 min 0,0 UV-I 0 W/m 15,4 km/h (3 Bft)
08.02.2014 17:54 7,4 C 5,0 C 83 % 988,0 hPa 0,0 l/m 0 min 0 min 0,0 UV-I 0 W/m 23,2 km/h (4 Bft)
08.02.2014 17:56 7,4 C 5,0 C 83 % 988,0 hPa 0,0 l/m 0 min 0 min 0,0 UV-I 0 W/m 23,2 km/h (4 Bft)
08.02.2014 17:58 7,3 C 5,0 C 83 % 988,2 hPa 0,0 l/m 0 min 0 min 0,0 UV-I 0 W/m 20,6 km/h (4 Bft)
08.02.2014 18:00 7,3 C 5,0 C 83 % 987,9 hPa 0,0 l/m 0 min 0 min 0,0 UV-I 0 W/m 18,0 km/h (3 Bft)
08.02.2014 18:02 7,3 C 5,0 C 83 % 988,2 hPa 0,0 l/m 0 min 0 min 0,0 UV-I 0 W/m 7,7 km/h (2 Bft)
08.02.2014 18:04 7,3 C 5,0 C 83 % 988,0 hPa 0,0 l/m 0 min 0 min 0,0 UV-I 0 W/m 15,4 km/h (3 Bft)
08.02.2014 18:06 7,3 C 5,0 C 83 % 988,0 hPa 0,0 l/m 0 min 0 min 0,0 UV-I 0 W/m 23,2 km/h (4 Bft)
08.02.2014 18:08 7,3 C 5,0 C 83 % 988,0 hPa 0,0 l/m 0 min 0 min 0,0 UV-I 0 W/m 20,6 km/h (4 Bft)
08.02.2014 18:10 7,2 C 5,0 C 83 % 988,1 hPa 0,0 l/m 0 min 0 min 0,0 UV-I 0 W/m 20,6 km/h (4 Bft)
08.02.2014 18:12 7,2 C 5,0 C 83 % 988,1 hPa 0,0 l/m 0 min 0 min 0,0 UV-I 0 W/m 12,9 km/h (3 Bft)
08.02.2014 18:14 7,2 C 5,0 C 83 % 988,2 hPa 0,0 l/m 0 min 0 min 0,0 UV-I 0 W/m 23,2 km/h (4 Bft)
08.02.2014 18:16 7,2 C 5,0 C 83 % 988,1 hPa 0,0 l/m 0 min 0 min 0,0 UV-I 0 W/m 12,9 km/h (3 Bft)
08.02.2014 18:18 7,2 C 5,0 C 83 % 988,1 hPa 0,0 l/m 0 min 0 min 0,0 UV-I 0 W/m 25,7 km/h (4 Bft)
08.02.2014 18:20 7,2 C 5,0 C 83 % 988,0 hPa 0,0 l/m 0 min 0 min 0,0 UV-I 0 W/m 18,0 km/h (3 Bft)
08.02.2014 18:22 7,2 C 5,0 C 83 % 988,0 hPa 0,0 l/m 0 min 0 min 0,0 UV-I 0 W/m 15,4 km/h (3 Bft)
08.02.2014 18:24 7,2 C 5,0 C 83 % 988,0 hPa 0,0 l/m 0 min 0 min 0,0 UV-I 0 W/m 15,4 km/h (3 Bft)
08.02.2014 18:26 7,2 C 5,0 C 83 % 988,1 hPa 0,0 l/m 0 min 0 min 0,0 UV-I 0 W/m 15,4 km/h (3 Bft)
08.02.2014 18:28 7,2 C 5,0 C 83 % 987,9 hPa 0,0 l/m 0 min 0 min 0,0 UV-I 0 W/m 25,7 km/h (4 Bft)
08.02.2014 18:30 7,2 C 5,0 C 83 % 988,0 hPa 0,0 l/m 0 min 0 min 0,0 UV-I 0 W/m 25,7 km/h (4 Bft)
08.02.2014 18:32 7,2 C 5,0 C 83 % 988,1 hPa 0,0 l/m 0 min 0 min 0,0 UV-I 0 W/m 23,2 km/h (4 Bft)
08.02.2014 18:34 7,2 C 5,0 C 83 % 988,0 hPa 0,0 l/m 0 min 0 min 0,0 UV-I 0 W/m 15,4 km/h (3 Bft)
08.02.2014 18:36 7,2 C 5,0 C 83 % 988,0 hPa 0,0 l/m 0 min 0 min 0,0 UV-I 0 W/m 23,2 km/h (4 Bft)
08.02.2014 18:38 7,2 C 5,0 C 83 % 988,0 hPa 0,0 l/m 0 min 0 min 0,0 UV-I 0 W/m 12,9 km/h (3 Bft)
08.02.2014 18:40 7,2 C 5,0 C 83 % 988,0 hPa 0,0 l/m 0 min 0 min 0,0 UV-I 0 W/m 25,7 km/h (4 Bft)
08.02.2014 18:42 7,2 C 5,0 C 83 % 988,0 hPa 0,0 l/m 0 min 0 min 0,0 UV-I 0 W/m 33,5 km/h (5 Bft)
08.02.2014 18:44 7,1 C 5,0 C 83 % 988,1 hPa 0,0 l/m 0 min 0 min 0,0 UV-I 0 W/m 25,7 km/h (4 Bft)
08.02.2014 18:46 7,1 C 5,0 C 83 % 988,2 hPa 0,0 l/m 0 min 0 min 0,0 UV-I 0 W/m 23,2 km/h (4 Bft)
08.02.2014 18:48 7,1 C 5,0 C 83 % 988,2 hPa 0,0 l/m 0 min 0 min 0,0 UV-I 0 W/m 15,4 km/h (3 Bft)
08.02.2014 18:50 7,1 C 5,0 C 84 % 988,2 hPa 0,0 l/m 0 min 0 min 0,0 UV-I 0 W/m 36,0 km/h (5 Bft)
08.02.2014 18:52 7,1 C 5,0 C 84 % 988,2 hPa 0,0 l/m 0 min 0 min 0,0 UV-I 0 W/m 20,6 km/h (4 Bft)
08.02.2014 18:54 7,1 C 5,0 C 84 % 988,1 hPa 0,0 l/m 0 min 0 min 0,0 UV-I 0 W/m 18,0 km/h (3 Bft)
08.02.2014 18:56 7,1 C 5,0 C 84 % 988,1 hPa 0,0 l/m 0 min 0 min 0,0 UV-I 0 W/m 12,9 km/h (3 Bft)
08.02.2014 18:58 7,1 C 5,0 C 84 % 988,1 hPa 0,0 l/m 0 min 0 min 0,0 UV-I 0 W/m 28,3 km/h (4 Bft)
08.02.2014 19:00 7,1 C 5,0 C 84 % 988,0 hPa 0,0 l/m 0 min 0 min 0,0 UV-I 0 W/m 10,3 km/h (2 Bft)
08.02.2014 19:02 7,1 C 5,0 C 84 % 988,0 hPa 0,0 l/m 0 min 0 min 0,0 UV-I 0 W/m 20,6 km/h (4 Bft)
08.02.2014 19:04 7,0 C 5,0 C 84 % 988,0 hPa 0,0 l/m 0 min 0 min 0,0 UV-I 0 W/m 23,2 km/h (4 Bft)
08.02.2014 19:06 7,0 C 5,0 C 84 % 988,0 hPa 0,0 l/m 0 min 0 min 0,0 UV-I 0 W/m 18,0 km/h (3 Bft)
08.02.2014 19:08 7,0 C 5,0 C 84 % 988,0 hPa 0,0 l/m 0 min 0 min 0,0 UV-I 0 W/m 12,9 km/h (3 Bft)
08.02.2014 19:10 7,0 C 5,0 C 84 % 987,9 hPa 0,0 l/m 0 min 0 min 0,0 UV-I 0 W/m 23,2 km/h (4 Bft)
08.02.2014 19:12 6,9 C 5,0 C 84 % 988,0 hPa 0,0 l/m 0 min 0 min 0,0 UV-I 0 W/m 18,0 km/h (3 Bft)
08.02.2014 19:14 6,9 C 5,0 C 84 % 988,0 hPa 0,0 l/m 0 min 0 min 0,0 UV-I 0 W/m 15,4 km/h (3 Bft)
08.02.2014 19:16 6,9 C 5,0 C 84 % 988,0 hPa 0,0 l/m 0 min 0 min 0,0 UV-I 0 W/m 28,3 km/h (4 Bft)
08.02.2014 19:18 6,9 C 5,0 C 84 % 987,9 hPa 0,0 l/m 0 min 0 min 0,0 UV-I 0 W/m 28,3 km/h (4 Bft)
08.02.2014 19:20 6,9 C 5,0 C 84 % 988,0 hPa 0,0 l/m 0 min 0 min 0,0 UV-I 0 W/m 23,2 km/h (4 Bft)
08.02.2014 19:22 6,9 C 5,0 C 84 % 987,9 hPa 0,0 l/m 0 min 0 min 0,0 UV-I 0 W/m 15,4 km/h (3 Bft)
08.02.2014 19:24 6,9 C 5,0 C 84 % 987,8 hPa 0,0 l/m 0 min 0 min 0,0 UV-I 0 W/m 18,0 km/h (3 Bft)
08.02.2014 19:26 6,9 C 4,4 C 84 % 987,9 hPa 0,0 l/m 0 min 0 min 0,0 UV-I 0 W/m 23,2 km/h (4 Bft)
08.02.2014 19:28 6,9 C 4,4 C 84 % 988,1 hPa 0,0 l/m 0 min 0 min 0,0 UV-I 0 W/m 12,9 km/h (3 Bft)
08.02.2014 19:30 6,9 C 4,4 C 84 % 988,0 hPa 0,0 l/m 0 min 0 min 0,0 UV-I 0 W/m 28,3 km/h (4 Bft)
08.02.2014 19:32 6,9 C 4,4 C 84 % 988,1 hPa 0,0 l/m 0 min 0 min 0,0 UV-I 0 W/m 10,3 km/h (2 Bft)
08.02.2014 19:34 6,8 C 4,4 C 84 % 988,0 hPa 0,0 l/m 0 min 0 min 0,0 UV-I 0 W/m 12,9 km/h (3 Bft)
08.02.2014 19:36 6,8 C 4,4 C 84 % 987,9 hPa 0,0 l/m 0 min 0 min 0,0 UV-I 0 W/m 18,0 km/h (3 Bft)
08.02.2014 19:38 6,8 C 4,4 C 84 % 987,9 hPa 0,0 l/m 0 min 0 min 0,0 UV-I 0 W/m 15,4 km/h (3 Bft)
08.02.2014 19:40 6,8 C 4,4 C 84 % 988,0 hPa 0,0 l/m 0 min 0 min 0,0 UV-I 0 W/m 18,0 km/h (3 Bft)
08.02.2014 19:42 6,8 C 4,4 C 84 % 987,9 hPa 0,0 l/m 0 min 0 min 0,0 UV-I 0 W/m 12,9 km/h (3 Bft)
08.02.2014 19:44 6,8 C 5,0 C 84 % 988,0 hPa 0,0 l/m 0 min 0 min 0,0 UV-I 0 W/m 15,4 km/h (3 Bft)
08.02.2014 19:46 6,8 C 5,0 C 84 % 987,9 hPa 0,0 l/m 0 min 0 min 0,0 UV-I 0 W/m 12,9 km/h (3 Bft)
08.02.2014 19:48 6,8 C 5,0 C 84 % 987,9 hPa 0,0 l/m 0 min 0 min 0,0 UV-I 0 W/m 33,5 km/h (5 Bft)
08.02.2014 19:50 6,9 C 5,0 C 84 % 987,9 hPa 0,0 l/m 0 min 0 min 0,0 UV-I 0 W/m 25,7 km/h (4 Bft)
08.02.2014 19:52 6,9 C 5,0 C 84 % 987,9 hPa 0,0 l/m 0 min 0 min 0,0 UV-I 0 W/m 12,9 km/h (3 Bft)
08.02.2014 19:54 6,9 C 4,4 C 84 % 988,0 hPa 0,0 l/m 0 min 0 min 0,0 UV-I 0 W/m 12,9 km/h (3 Bft)
08.02.2014 19:56 6,9 C 4,4 C 84 % 988,0 hPa 0,0 l/m 0 min 0 min 0,0 UV-I 0 W/m 18,0 km/h (3 Bft)
08.02.2014 19:58 6,9 C 4,4 C 84 % 988,0 hPa 0,0 l/m 0 min 0 min 0,0 UV-I 0 W/m 10,3 km/h (2 Bft)
08.02.2014 20:00 6,9 C 4,4 C 84 % 988,0 hPa 0,0 l/m 0 min 0 min 0,0 UV-I 0 W/m 18,0 km/h (3 Bft)
08.02.2014 20:02 6,9 C 4,4 C 83 % 987,9 hPa 0,0 l/m 0 min 0 min 0,0 UV-I 0 W/m 23,2 km/h (4 Bft)
08.02.2014 20:04 6,9 C 4,4 C 83 % 988,0 hPa 0,0 l/m 0 min 0 min 0,0 UV-I 0 W/m 15,4 km/h (3 Bft)
08.02.2014 20:06 6,9 C 4,4 C 83 % 988,0 hPa 0,0 l/m 0 min 0 min 0,0 UV-I 0 W/m 23,2 km/h (4 Bft)
08.02.2014 20:08 6,9 C 5,0 C 83 % 988,1 hPa 0,0 l/m 0 min 0 min 0,0 UV-I 0 W/m 23,2 km/h (4 Bft)
08.02.2014 20:10 7,0 C 5,0 C 83 % 988,0 hPa 0,0 l/m 0 min 0 min 0,0 UV-I 0 W/m 30,9 km/h (5 Bft)
08.02.2014 20:12 7,0 C 5,0 C 83 % 988,1 hPa 0,0 l/m 0 min 0 min 0,0 UV-I 0 W/m 18,0 km/h (3 Bft)
08.02.2014 20:14 7,0 C 5,0 C 83 % 988,0 hPa 0,0 l/m 0 min 0 min 0,0 UV-I 0 W/m 12,9 km/h (3 Bft)
08.02.2014 20:16 7,0 C 5,0 C 83 % 988,0 hPa 0,0 l/m 0 min 0 min 0,0 UV-I 0 W/m 18,0 km/h (3 Bft)
08.02.2014 20:18 7,0 C 5,0 C 83 % 988,0 hPa 0,0 l/m 0 min 0 min 0,0 UV-I 0 W/m 12,9 km/h (3 Bft)
08.02.2014 20:20 7,0 C 5,0 C 83 % 988,0 hPa 0,0 l/m 0 min 0 min 0,0 UV-I 0 W/m 15,4 km/h (3 Bft)
08.02.2014 20:22 7,0 C 5,0 C 83 % 988,0 hPa 0,0 l/m 0 min 0 min 0,0 UV-I 0 W/m 18,0 km/h (3 Bft)
08.02.2014 20:24 7,0 C 5,0 C 83 % 988,1 hPa 0,0 l/m 0 min 0 min 0,0 UV-I 0 W/m 18,0 km/h (3 Bft)
08.02.2014 20:26 7,0 C 5,0 C 83 % 988,0 hPa 0,0 l/m 0 min 0 min 0,0 UV-I 0 W/m 15,4 km/h (3 Bft)
08.02.2014 20:28 7,0 C 5,0 C 83 % 988,2 hPa 0,0 l/m 0 min 0 min 0,0 UV-I 0 W/m 15,4 km/h (3 Bft)
08.02.2014 20:30 7,0 C 5,0 C 83 % 988,1 hPa 0,0 l/m 0 min 0 min 0,0 UV-I 0 W/m 20,6 km/h (4 Bft)
08.02.2014 20:32 7,0 C 5,0 C 83 % 988,1 hPa 0,0 l/m 0 min 0 min 0,0 UV-I 0 W/m 10,3 km/h (2 Bft)
08.02.2014 20:34 7,0 C 5,0 C 83 % 988,2 hPa 0,0 l/m 0 min 0 min 0,0 UV-I 0 W/m 7,7 km/h (2 Bft)
08.02.2014 20:36 7,0 C 5,0 C 83 % 988,0 hPa 0,0 l/m 0 min 0 min 0,0 UV-I 0 W/m 12,9 km/h (3 Bft)
08.02.2014 20:38 6,9 C 5,0 C 83 % 988,1 hPa 0,0 l/m 0 min 0 min 0,0 UV-I 0 W/m 15,4 km/h (3 Bft)
08.02.2014 20:40 6,9 C 5,0 C 83 % 988,1 hPa 0,0 l/m 0 min 0 min 0,0 UV-I 0 W/m 7,7 km/h (2 Bft)
08.02.2014 20:42 6,9 C 5,0 C 83 % 988,1 hPa 0,0 l/m 0 min 0 min 0,0 UV-I 0 W/m 10,3 km/h (2 Bft)
08.02.2014 20:44 6,9 C 5,0 C 83 % 988,2 hPa 0,0 l/m 0 min 0 min 0,0 UV-I 0 W/m 12,9 km/h (3 Bft)
08.02.2014 20:46 6,9 C 5,0 C 83 % 988,1 hPa 0,0 l/m 0 min 0 min 0,0 UV-I 0 W/m 10,3 km/h (2 Bft)
08.02.2014 20:48 6,9 C 5,0 C 83 % 988,1 hPa 0,0 l/m 0 min 0 min 0,0 UV-I 0 W/m 12,9 km/h (3 Bft)
08.02.2014 20:50 6,9 C 4,4 C 83 % 988,0 hPa 0,0 l/m 0 min 0 min 0,0 UV-I 0 W/m 5,1 km/h (1 Bft)
08.02.2014 20:52 6,9 C 5,0 C 83 % 988,0 hPa 0,0 l/m 0 min 0 min 0,0 UV-I 0 W/m 10,3 km/h (2 Bft)
08.02.2014 20:54 6,9 C 5,0 C 83 % 988,0 hPa 0,0 l/m 0 min 0 min 0,0 UV-I 0 W/m 10,3 km/h (2 Bft)
08.02.2014 20:56 6,8 C 5,0 C 83 % 988,0 hPa 0,0 l/m 0 min 0 min 0,0 UV-I 0 W/m 18,0 km/h (3 Bft)
08.02.2014 20:58 6,9 C 5,0 C 83 % 987,9 hPa 0,0 l/m 0 min 0 min 0,0 UV-I 0 W/m 15,4 km/h (3 Bft)
08.02.2014 21:00 6,8 C 4,4 C 83 % 987,9 hPa 0,0 l/m 0 min 0 min 0,0 UV-I 0 W/m 12,9 km/h (3 Bft)
08.02.2014 21:02 6,8 C 5,0 C 83 % 987,9 hPa 0,0 l/m 0 min 0 min 0,0 UV-I 0 W/m 18,0 km/h (3 Bft)
08.02.2014 21:04 6,8 C 5,0 C 83 % 988,0 hPa 0,0 l/m 0 min 0 min 0,0 UV-I 0 W/m 7,7 km/h (2 Bft)
08.02.2014 21:06 6,8 C 5,0 C 83 % 988,1 hPa 0,0 l/m 0 min 0 min 0,0 UV-I 0 W/m 15,4 km/h (3 Bft)
08.02.2014 21:08 6,8 C 5,0 C 83 % 987,9 hPa 0,0 l/m 0 min 0 min 0,0 UV-I 0 W/m 12,9 km/h (3 Bft)
08.02.2014 21:10 6,8 C 5,0 C 83 % 988,0 hPa 0,0 l/m 0 min 0 min 0,0 UV-I 0 W/m 33,5 km/h (5 Bft)
08.02.2014 21:12 6,8 C 5,0 C 83 % 988,0 hPa 0,0 l/m 0 min 0 min 0,0 UV-I 0 W/m 23,2 km/h (4 Bft)
08.02.2014 21:14 6,9 C 5,0 C 83 % 987,9 hPa 0,0 l/m 0 min 0 min 0,0 UV-I 0 W/m 18,0 km/h (3 Bft)
08.02.2014 21:16 6,9 C 5,0 C 83 % 988,0 hPa 0,0 l/m 0 min 0 min 0,0 UV-I 0 W/m 20,6 km/h (4 Bft)
08.02.2014 21:18 6,9 C 5,0 C 83 % 987,9 hPa 0,0 l/m 0 min 0 min 0,0 UV-I 0 W/m 18,0 km/h (3 Bft)
08.02.2014 21:20 6,9 C 5,0 C 83 % 987,9 hPa 0,0 l/m 0 min 0 min 0,0 UV-I 0 W/m 20,6 km/h (4 Bft)
08.02.2014 21:22 6,9 C 5,0 C 83 % 988,0 hPa 0,0 l/m 0 min 0 min 0,0 UV-I 0 W/m 12,9 km/h (3 Bft)
08.02.2014 21:24 6,9 C 5,0 C 83 % 987,9 hPa 0,0 l/m 0 min 0 min 0,0 UV-I 0 W/m 15,4 km/h (3 Bft)
08.02.2014 21:26 6,9 C 5,0 C 83 % 987,9 hPa 0,0 l/m 0 min 0 min 0,0 UV-I 0 W/m 10,3 km/h (2 Bft)
08.02.2014 21:28 6,9 C 5,0 C 82 % 987,9 hPa 0,0 l/m 0 min 0 min 0,0 UV-I 0 W/m 23,2 km/h (4 Bft)
08.02.2014 21:30 7,0 C 5,6 C 82 % 987,8 hPa 0,0 l/m 0 min 0 min 0,0 UV-I 0 W/m 18,0 km/h (3 Bft)
08.02.2014 21:32 7,0 C 5,6 C 83 % 987,8 hPa 0,0 l/m 0 min 0 min 0,0 UV-I 0 W/m 18,0 km/h (3 Bft)
08.02.2014 21:34 7,0 C 5,0 C 82 % 987,8 hPa 0,0 l/m 0 min 0 min 0,0 UV-I 0 W/m 23,2 km/h (4 Bft)
08.02.2014 21:36 7,0 C 5,0 C 82 % 987,8 hPa 0,0 l/m 0 min 0 min 0,0 UV-I 0 W/m 20,6 km/h (4 Bft)
08.02.2014 21:38 7,1 C 5,6 C 82 % 987,9 hPa 0,0 l/m 0 min 0 min 0,0 UV-I 0 W/m 15,4 km/h (3 Bft)
08.02.2014 21:40 7,1 C 5,6 C 82 % 987,8 hPa 0,0 l/m 0 min 0 min 0,0 UV-I 0 W/m 10,3 km/h (2 Bft)
08.02.2014 21:42 7,1 C 5,6 C 82 % 987,8 hPa 0,0 l/m 0 min 0 min 0,0 UV-I 0 W/m 18,0 km/h (3 Bft)
08.02.2014 21:44 7,1 C 5,0 C 82 % 987,8 hPa 0,0 l/m 0 min 0 min 0,0 UV-I 0 W/m 18,0 km/h (3 Bft)
08.02.2014 21:46 7,1 C 5,0 C 82 % 987,7 hPa 0,0 l/m 0 min 0 min 0,0 UV-I 0 W/m 30,9 km/h (5 Bft)
08.02.2014 21:48 7,1 C 5,0 C 82 % 987,8 hPa 0,0 l/m 0 min 0 min 0,0 UV-I 0 W/m 12,9 km/h (3 Bft)
08.02.2014 21:50 7,1 C 5,0 C 82 % 987,8 hPa 0,0 l/m 0 min 0 min 0,0 UV-I 0 W/m 12,9 km/h (3 Bft)
08.02.2014 21:52 7,1 C 5,0 C 82 % 987,7 hPa 0,0 l/m 0 min 0 min 0,0 UV-I 0 W/m 12,9 km/h (3 Bft)
08.02.2014 21:54 7,1 C 5,0 C 82 % 987,7 hPa 0,0 l/m 0 min 0 min 0,0 UV-I 0 W/m 20,6 km/h (4 Bft)
08.02.2014 21:56 7,1 C 5,0 C 82 % 987,8 hPa 0,0 l/m 0 min 0 min 0,0 UV-I 0 W/m 12,9 km/h (3 Bft)
08.02.2014 21:58 7,1 C 5,0 C 82 % 987,8 hPa 0,0 l/m 0 min 0 min 0,0 UV-I 0 W/m 12,9 km/h (3 Bft)
08.02.2014 22:00 7,1 C 5,0 C 82 % 987,7 hPa 0,0 l/m 0 min 0 min 0,0 UV-I 0 W/m 10,3 km/h (2 Bft)
08.02.2014 22:02 7,1 C 5,0 C 82 % 987,8 hPa 0,0 l/m 0 min 0 min 0,0 UV-I 0 W/m 18,0 km/h (3 Bft)
08.02.2014 22:04 7,1 C 5,0 C 82 % 987,8 hPa 0,0 l/m 0 min 0 min 0,0 UV-I 0 W/m 20,6 km/h (4 Bft)
08.02.2014 22:06 7,1 C 5,0 C 82 % 987,7 hPa 0,0 l/m 0 min 0 min 0,0 UV-I 0 W/m 12,9 km/h (3 Bft)
08.02.2014 22:08 7,1 C 5,0 C 81 % 987,8 hPa 0,0 l/m 0 min 0 min 0,0 UV-I 0 W/m 23,2 km/h (4 Bft)
08.02.2014 22:10 7,1 C 5,0 C 81 % 987,7 hPa 0,0 l/m 0 min 0 min 0,0 UV-I 0 W/m 15,4 km/h (3 Bft)
08.02.2014 22:12 7,1 C 5,0 C 81 % 987,8 hPa 0,0 l/m 0 min 0 min 0,0 UV-I 0 W/m 25,7 km/h (4 Bft)
08.02.2014 22:14 7,1 C 5,0 C 81 % 987,8 hPa 0,0 l/m 0 min 0 min 0,0 UV-I 0 W/m 23,2 km/h (4 Bft)
08.02.2014 22:16 7,1 C 5,0 C 81 % 987,8 hPa 0,0 l/m 0 min 0 min 0,0 UV-I 0 W/m 12,9 km/h (3 Bft)
08.02.2014 22:18 7,1 C 5,0 C 81 % 987,8 hPa 0,0 l/m 0 min 0 min 0,0 UV-I 0 W/m 15,4 km/h (3 Bft)
08.02.2014 22:20 7,1 C 5,0 C 81 % 987,9 hPa 0,0 l/m 0 min 0 min 0,0 UV-I 0 W/m 15,4 km/h (3 Bft)
08.02.2014 22:22 7,1 C 5,0 C 81 % 987,8 hPa 0,0 l/m 0 min 0 min 0,0 UV-I 0 W/m 12,9 km/h (3 Bft)
08.02.2014 22:24 7,1 C 5,0 C 81 % 987,8 hPa 0,0 l/m 0 min 0 min 0,0 UV-I 0 W/m 18,0 km/h (3 Bft)
08.02.2014 22:26 7,0 C 5,0 C 81 % 987,8 hPa 0,0 l/m 0 min 0 min 0,0 UV-I 0 W/m 20,6 km/h (4 Bft)
08.02.2014 22:28 7,1 C 5,0 C 81 % 987,8 hPa 0,0 l/m 0 min 0 min 0,0 UV-I 0 W/m 28,3 km/h (4 Bft)
08.02.2014 22:30 7,1 C 5,0 C 81 % 987,9 hPa 0,0 l/m 0 min 0 min 0,0 UV-I 0 W/m 15,4 km/h (3 Bft)
08.02.2014 22:32 7,1 C 5,0 C 81 % 987,7 hPa 0,0 l/m 0 min 0 min 0,0 UV-I 0 W/m 15,4 km/h (3 Bft)
08.02.2014 22:34 7,1 C 5,0 C 81 % 987,8 hPa 0,0 l/m 0 min 0 min 0,0 UV-I 0 W/m 10,3 km/h (2 Bft)
08.02.2014 22:36 7,1 C 5,0 C 81 % 987,8 hPa 0,0 l/m 0 min 0 min 0,0 UV-I 0 W/m 7,7 km/h (2 Bft)
08.02.2014 22:38 7,1 C 5,6 C 81 % 987,8 hPa 0,0 l/m 0 min 0 min 0,0 UV-I 0 W/m 12,9 km/h (3 Bft)
08.02.2014 22:40 7,1 C 5,0 C 81 % 987,9 hPa 0,0 l/m 0 min 0 min 0,0 UV-I 0 W/m 25,7 km/h (4 Bft)
08.02.2014 22:42 7,1 C 5,0 C 81 % 987,9 hPa 0,0 l/m 0 min 0 min 0,0 UV-I 0 W/m 18,0 km/h (3 Bft)
08.02.2014 22:44 7,1 C 5,0 C 81 % 988,0 hPa 0,0 l/m 0 min 0 min 0,0 UV-I 0 W/m 20,6 km/h (4 Bft)
08.02.2014 22:46 7,1 C 5,6 C 80 % 988,0 hPa 0,0 l/m 0 min 0 min 0,0 UV-I 0 W/m 23,2 km/h (4 Bft)
08.02.2014 22:48 7,1 C 5,0 C 80 % 988,1 hPa 0,0 l/m 0 min 2 min 0,0 UV-I 0 W/m 30,9 km/h (5 Bft)
08.02.2014 22:50 7,1 C 5,0 C 80 % 988,2 hPa 0,0 l/m 0 min 2 min 0,0 UV-I 0 W/m 23,2 km/h (4 Bft)
08.02.2014 22:52 7,2 C 5,0 C 81 % 988,2 hPa 0,0 l/m 0 min 2 min 0,0 UV-I 0 W/m 30,9 km/h (5 Bft)
08.02.2014 22:54 7,1 C 4,4 C 81 % 988,2 hPa 0,0 l/m 0 min 2 min 0,0 UV-I 0 W/m 30,9 km/h (5 Bft)
08.02.2014 22:56 7,1 C 4,4 C 81 % 988,2 hPa 0,0 l/m 0 min 0 min 0,0 UV-I 0 W/m 10,3 km/h (2 Bft)
08.02.2014 22:58 7,0 C 4,4 C 81 % 988,2 hPa 0,0 l/m 0 min 0 min 0,0 UV-I 0 W/m 18,0 km/h (3 Bft)
08.02.2014 23:00 7,0 C 4,4 C 81 % 988,2 hPa 0,0 l/m 0 min 2 min 0,0 UV-I 0 W/m 28,3 km/h (4 Bft)
08.02.2014 23:02 6,9 C 4,4 C 81 % 988,5 hPa 0,0 l/m 0 min 2 min 0,0 UV-I 0 W/m 33,5 km/h (5 Bft)
08.02.2014 23:04 6,8 C 4,4 C 81 % 988,2 hPa 0,0 l/m 0 min 2 min 0,0 UV-I 0 W/m 15,4 km/h (3 Bft)
08.02.2014 23:06 6,8 C 4,4 C 81 % 988,2 hPa 0,0 l/m 0 min 0 min 0,0 UV-I 0 W/m 30,9 km/h (5 Bft)
08.02.2014 23:08 6,7 C 4,4 C 81 % 988,3 hPa 0,0 l/m 0 min 0 min 0,0 UV-I 0 W/m 28,3 km/h (4 Bft)
08.02.2014 23:10 6,7 C 4,4 C 81 % 988,2 hPa 0,0 l/m 0 min 0 min 0,0 UV-I 0 W/m 20,6 km/h (4 Bft)
08.02.2014 23:12 6,6 C 4,4 C 81 % 988,3 hPa 0,0 l/m 0 min 0 min 0,0 UV-I 0 W/m 23,2 km/h (4 Bft)
08.02.2014 23:14 6,6 C 4,4 C 80 % 988,2 hPa 0,0 l/m 0 min 0 min 0,0 UV-I 0 W/m 20,6 km/h (4 Bft)
08.02.2014 23:16 6,5 C 4,4 C 80 % 988,3 hPa 0,0 l/m 0 min 0 min 0,0 UV-I 0 W/m 25,7 km/h (4 Bft)
08.02.2014 23:18 6,4 C 4,4 C 80 % 988,3 hPa 0,0 l/m 0 min 0 min 0,0 UV-I 0 W/m 20,6 km/h (4 Bft)
08.02.2014 23:20 6,4 C 4,4 C 80 % 988,3 hPa 0,0 l/m 0 min 0 min 0,0 UV-I 0 W/m 41,2 km/h (6 Bft)
08.02.2014 23:22 6,4 C 4,4 C 80 % 988,4 hPa 0,0 l/m 0 min 0 min 0,0 UV-I 0 W/m 23,2 km/h (4 Bft)
08.02.2014 23:24 6,3 C 4,4 C 80 % 988,3 hPa 0,0 l/m 0 min 0 min 0,0 UV-I 0 W/m 12,9 km/h (3 Bft)
08.02.2014 23:26 6,3 C 4,4 C 80 % 988,4 hPa 0,0 l/m 0 min 0 min 0,0 UV-I 0 W/m 28,3 km/h (4 Bft)
08.02.2014 23:28 6,3 C 4,4 C 80 % 988,4 hPa 0,0 l/m 0 min 0 min 0,0 UV-I 0 W/m 20,6 km/h (4 Bft)
08.02.2014 23:30 6,2 C 4,4 C 80 % 988,4 hPa 0,0 l/m 0 min 0 min 0,0 UV-I 0 W/m 25,7 km/h (4 Bft)
08.02.2014 23:32 6,2 C 3,9 C 81 % 988,4 hPa 0,0 l/m 0 min 0 min 0,0 UV-I 0 W/m 10,3 km/h (2 Bft)
08.02.2014 23:34 6,2 C 3,9 C 81 % 988,5 hPa 0,0 l/m 0 min 0 min 0,0 UV-I 0 W/m 28,3 km/h (4 Bft)
08.02.2014 23:36 6,2 C 3,9 C 81 % 988,5 hPa 0,0 l/m 0 min 0 min 0,0 UV-I 0 W/m 20,6 km/h (4 Bft)
08.02.2014 23:38 6,1 C 3,9 C 81 % 988,4 hPa 0,0 l/m 0 min 0 min 0,0 UV-I 0 W/m 33,5 km/h (5 Bft)
08.02.2014 23:40 6,1 C 3,9 C 81 % 988,5 hPa 0,0 l/m 0 min 0 min 0,0 UV-I 0 W/m 18,0 km/h (3 Bft)
08.02.2014 23:42 6,1 C 3,9 C 81 % 988,5 hPa 0,0 l/m 0 min 0 min 0,0 UV-I 0 W/m 18,0 km/h (3 Bft)
08.02.2014 23:44 6,1 C 3,9 C 81 % 988,4 hPa 0,0 l/m 0 min 0 min 0,0 UV-I 0 W/m 10,3 km/h (2 Bft)
08.02.2014 23:46 6,0 C 3,9 C 80 % 988,4 hPa 0,0 l/m 0 min 0 min 0,0 UV-I 0 W/m 25,7 km/h (4 Bft)
08.02.2014 23:48 6,0 C 3,9 C 80 % 988,4 hPa 0,0 l/m 0 min 0 min 0,0 UV-I 0 W/m 15,4 km/h (3 Bft)
08.02.2014 23:50 6,0 C 3,9 C 79 % 988,4 hPa 0,0 l/m 0 min 0 min 0,0 UV-I 0 W/m 25,7 km/h (4 Bft)
08.02.2014 23:52 5,9 C 3,9 C 79 % 988,4 hPa 0,0 l/m 0 min 0 min 0,0 UV-I 0 W/m 18,0 km/h (3 Bft)
08.02.2014 23:54 5,9 C 3,9 C 79 % 988,4 hPa 0,0 l/m 0 min 0 min 0,0 UV-I 0 W/m 23,2 km/h (4 Bft)
08.02.2014 23:56 5,9 C 3,9 C 78 % 988,5 hPa 0,0 l/m 0 min 0 min 0,0 UV-I 0 W/m 25,7 km/h (4 Bft)
08.02.2014 23:58 5,9 C 3,9 C 78 % 988,4 hPa 0,0 l/m 0 min 0 min 0,0 UV-I 0 W/m 5,1 km/h (1 Bft)
_ Min-Zeit 02:44 01:00 13:18 16:30 - - - - - 00:04
Minimum _ 3,1 C 1,7 C 78 % 987,7 hPa - - - - - 0,0 km/h (0 Bft)
_ Max-Zeit 13:10 13:06 03:12 00:02 09:54 00:00 08:42 00:00 13:06 16:38
Maximum _ 9,2 C 7,2 C 90 % 1001,0 hPa 0,2 l/m 0 min 2 min 0,0 UV-I 104 W/m 43,8 km/h
S-SW (6 Bft)
Durchschnitt _ 6,6 C 4,6 C 84 % 991,7 hPa #1,6 l/m #0 min. #5:28 h 0,0 UV-I 35 W/m 18,3 km/h (3 Bft)
© 2014 W. Hausmann